M I D A S
Marine Information and Data Acquisition System
Tripno 1951 of the Zeeleeuw from 2010-09-02 04:33:45 to 2010-09-02 17:55:37
Back to CruiseResearch ActivitiesStationsMapUnderway DataData graphs

EquipmentUnitsComment
TimeDGPSUTC
LatitudeDGPSDM.mWGS84
LongitudeDGPSDM.mWGS84
TemperatureSBE03/SBE38deg celciusITS90
ConductivitySBE21S/mITS90
SalinitySBE21 Practical Salinity Units
ChlorophylAChelsea fluorimeterg/lCalibrated in Aceton
Missing or incorrect values are displayed as -999
Sea surface data collected by the RV Zeeleeuw from 2010-09-02 04:11:33 to 2010-09-02 18:05:22
                                                                                    Next 1000 lines
Time Latitude Longitude Temperature Conductivity Salinity ChlorophylA
2010-09-02 04:11:44 51°13.664 2°55.959 20.3951 0.334872 2.003793 -0.861272
2010-09-02 04:11:49 51°13.664 2°55.959 20.3954 0.334872 2.003793 -0.861272
2010-09-02 04:11:54 51°13.664 2°55.959 20.3932 0.334872 2.003793 -0.861272
2010-09-02 04:11:59 51°13.664 2°55.959 20.3918 0.334872 2.003827 -0.861272
2010-09-02 04:12:04 51°13.664 2°55.959 20.3903 0.334872 2.003861 -0.826448
2010-09-02 04:12:08 51°13.664 2°55.959 20.3898 0.334872 2.003895 -0.826448
2010-09-02 04:12:14 51°13.664 2°55.959 20.3889 0.334767 2.003233 -0.826448
2010-09-02 04:12:19 51°13.664 2°55.959 20.389 0.334767 2.003233 -0.826448
2010-09-02 04:12:24 51°13.664 2°55.959 20.388 0.334767 2.003301 -0.826448
2010-09-02 04:12:28 51°13.664 2°55.959 20.3883 0.334767 2.003301 -0.861272
2010-09-02 04:12:33 51°13.664 2°55.958 20.3872 0.334767 2.003335 -0.826448
2010-09-02 04:12:39 51°13.664 2°55.958 20.3873 0.334767 2.003369 -0.861272
2010-09-02 04:12:43 51°13.664 2°55.959 20.3847 0.334767 2.003369 -0.826448
2010-09-02 04:12:49 51°13.664 2°55.958 20.3851 0.334767 2.003403 -0.826448
2010-09-02 04:12:53 51°13.664 2°55.958 20.3853 0.334767 2.003403 -0.826448
2010-09-02 04:12:59 51°13.665 2°55.959 20.3847 0.334767 2.003369 -0.826448
2010-09-02 04:13:04 51°13.665 2°55.959 20.3848 0.334767 2.003403 -0.826448
2010-09-02 04:13:08 51°13.665 2°55.959 20.3832 0.334767 2.003437 -0.861272
2010-09-02 04:13:13 51°13.664 2°55.959 20.3831 0.334767 2.00347 -0.861272
2010-09-02 04:13:19 51°13.664 2°55.959 20.3833 0.334767 2.003504 -0.861272
2010-09-02 04:13:24 51°13.664 2°55.959 20.383 0.334767 2.003504 -0.861272
2010-09-02 04:13:28 51°13.664 2°55.959 20.3833 0.334767 2.003538 -0.826448
2010-09-02 04:13:34 51°13.664 2°55.959 20.3821 0.334767 2.003538 -0.826448
2010-09-02 04:13:39 51°13.664 2°55.959 20.3824 0.334767 2.003606 -0.826448
2010-09-02 04:13:44 51°13.664 2°55.959 20.383 0.334767 2.003606 -0.826448
2010-09-02 04:13:48 51°13.664 2°55.959 20.3821 0.334767 2.003606 -0.826448
2010-09-02 04:13:53 51°13.663 2°55.959 20.3814 0.334767 2.00364 -0.861272
2010-09-02 04:13:59 51°13.662 2°55.959 20.38 0.334767 2.003606 -0.861272
2010-09-02 04:14:04 51°13.661 2°55.959 20.3796 0.334767 2.003674 -0.826448
2010-09-02 04:14:08 51°13.661 2°55.959 20.3797 0.334767 2.003708 -0.861272
2010-09-02 04:14:13 51°13.66 2°55.959 20.3799 0.334767 2.003708 -0.826448
2010-09-02 04:14:19 51°13.66 2°55.959 20.3805 0.334767 2.003708 -0.826448
2010-09-02 04:14:24 51°13.659 2°55.959 20.3803 0.334767 2.003742 -0.826448
2010-09-02 04:14:28 51°13.659 2°55.959 20.3793 0.334663 2.003114 -0.861272
2010-09-02 04:14:33 51°13.66 2°55.959 20.3765 0.334767 2.003775 -0.861272
2010-09-02 04:14:39 51°13.66 2°55.959 20.3752 0.334663 2.003148 -0.826448
2010-09-02 04:14:43 51°13.66 2°55.959 20.3738 0.334767 2.003809 -0.861272
2010-09-02 04:14:49 51°13.661 2°55.959 20.3742 0.334663 2.003216 -0.826448
2010-09-02 04:14:53 51°13.662 2°55.959 20.375 0.334663 2.003216 -0.826448
2010-09-02 04:14:59 51°13.662 2°55.959 20.3758 0.334663 2.003216 -0.826448
2010-09-02 04:15:03 51°13.662 2°55.959 20.3769 0.334663 2.003249 -0.826448
2010-09-02 04:15:08 51°13.662 2°55.959 20.3784 0.334663 2.003249 -0.826448
2010-09-02 04:15:14 51°13.662 2°55.959 20.3784 0.334663 2.003283 -0.861272
2010-09-02 04:15:19 51°13.662 2°55.959 20.3766 0.334663 2.003317 -0.826448
2010-09-02 04:15:24 51°13.663 2°55.959 20.3767 0.334663 2.003317 -0.826448
2010-09-02 04:15:28 51°13.663 2°55.959 20.3776 0.334663 2.003317 -0.861272
2010-09-02 04:15:33 51°13.663 2°55.959 20.3764 0.334663 2.003351 -0.861272
2010-09-02 04:15:39 51°13.664 2°55.959 20.3754 0.334663 2.003385 -0.861272
2010-09-02 04:15:44 51°13.664 2°55.959 20.3753 0.334663 2.003419 -0.861272
2010-09-02 04:15:48 51°13.664 2°55.959 20.3749 0.334663 2.003419 -0.861272
2010-09-02 04:15:53 51°13.664 2°55.959 20.3752 0.334663 2.003453 -0.826448
2010-09-02 04:15:59 51°13.664 2°55.959 20.3736 0.334663 2.003453 -0.791624
2010-09-02 04:16:04 51°13.664 2°55.959 20.3726 0.334663 2.003453 -0.861272
2010-09-02 04:16:08 51°13.664 2°55.959 20.3744 0.334663 2.003487 -0.826448
2010-09-02 04:16:13 51°13.664 2°55.959 20.3751 0.334663 2.003521 -0.826448
2010-09-02 04:16:19 51°13.664 2°55.959 20.3758 0.334663 2.003554 -0.861272
2010-09-02 04:16:24 51°13.664 2°55.959 20.3755 0.334663 2.003554 -0.861272
2010-09-02 04:16:28 51°13.664 2°55.959 20.3738 0.334663 2.003554 -0.826448
2010-09-02 04:16:33 51°13.664 2°55.959 20.3736 0.334663 2.003588 -0.826448
2010-09-02 04:16:38 51°13.664 2°55.959 20.3733 0.334663 2.003622 -0.826448
2010-09-02 04:16:44 51°13.664 2°55.959 20.3748 0.334663 2.003622 -0.861272
2010-09-02 04:16:48 51°13.664 2°55.959 20.375 0.334663 2.003656 -0.826448
2010-09-02 04:16:53 51°13.663 2°55.959 20.3732 0.334663 2.003656 -0.826448
2010-09-02 04:16:59 51°13.663 2°55.959 20.3683 0.334663 2.00369 -0.861272
2010-09-02 04:17:03 51°13.663 2°55.959 20.364 0.334663 2.003724 -0.826448
2010-09-02 04:17:09 51°13.663 2°55.959 20.3646 0.334559 2.003062 -0.826448
2010-09-02 04:17:13 51°13.663 2°55.959 20.3682 0.334559 2.00313 -0.861272
2010-09-02 04:17:19 51°13.663 2°55.959 20.3704 0.334559 2.00313 -0.861272
2010-09-02 04:17:23 51°13.664 2°55.959 20.3727 0.334559 2.003164 -0.826448
2010-09-02 04:17:28 51°13.664 2°55.959 20.3712 0.334559 2.003232 -0.861272
2010-09-02 04:17:34 51°13.664 2°55.959 20.3714 0.334559 2.003266 -0.826448
2010-09-02 04:17:39 51°13.664 2°55.959 20.3688 0.334559 2.003266 -0.861272
2010-09-02 04:17:44 51°13.664 2°55.959 20.3683 0.334559 2.003266 -0.826448
2010-09-02 04:17:48 51°13.664 2°55.959 20.3674 0.334559 2.003266 -0.826448
2010-09-02 04:17:53 51°13.664 2°55.959 20.3694 0.334559 2.0033 -0.826448
2010-09-02 04:17:59 51°13.664 2°55.959 20.3701 0.334559 2.003333 -0.826448
2010-09-02 04:18:04 51°13.664 2°55.959 20.3714 0.334559 2.003333 -0.826448
2010-09-02 04:18:08 51°13.664 2°55.959 20.3701 0.334559 2.003367 -0.861272
2010-09-02 04:18:13 51°13.664 2°55.959 20.3689 0.334559 2.003401 -0.826448
2010-09-02 04:18:19 51°13.664 2°55.959 20.3697 0.334559 2.003435 -0.791624
2010-09-02 04:18:24 51°13.664 2°55.959 20.3691 0.334559 2.003435 -0.791624
2010-09-02 04:18:28 51°13.664 2°55.959 20.3712 0.334559 2.003469 -0.826448
2010-09-02 04:18:33 51°13.664 2°55.959 20.3717 0.334559 2.003503 -0.826448
2010-09-02 04:18:39 51°13.664 2°55.959 20.3731 0.334559 2.003503 -0.861272
2010-09-02 04:18:44 51°13.664 2°55.959 20.3744 0.334559 2.003537 -0.826448
2010-09-02 04:18:48 51°13.664 2°55.959 20.3755 0.334559 2.003571 -0.861272
2010-09-02 04:18:53 51°13.664 2°55.959 20.3756 0.334559 2.003571 -0.861272
2010-09-02 04:18:59 51°13.664 2°55.959 20.3767 0.334559 2.003571 -0.861272
2010-09-02 04:19:04 51°13.664 2°55.959 20.3762 0.334559 2.003605 -0.791624
2010-09-02 04:19:08 51°13.663 2°55.959 20.3749 0.334559 2.003639 -0.861272
2010-09-02 04:19:13 51°13.663 2°55.959 20.3718 0.334559 2.003673 -0.826448
2010-09-02 04:19:19 51°13.663 2°55.959 20.3725 0.334559 2.003673 -0.826448
2010-09-02 04:19:23 51°13.664 2°55.959 20.373 0.334559 2.003673 -0.791624
2010-09-02 04:19:28 51°13.663 2°55.959 20.3735 0.334559 2.00374 -0.861272
2010-09-02 04:19:33 51°13.663 2°55.959 20.3747 0.334559 2.003774 -0.826448
2010-09-02 04:19:39 51°13.663 2°55.959 20.3744 0.334559 2.003808 -0.826448
2010-09-02 04:19:44 51°13.663 2°55.959 20.3742 0.334559 2.003808 -0.826448
2010-09-02 04:19:48 51°13.663 2°55.959 20.3748 0.334455 2.00318 -0.861272
2010-09-02 04:19:53 51°13.663 2°55.959 20.375 0.334455 2.00318 -0.861272
2010-09-02 04:19:59 51°13.663 2°55.959 20.3753 0.334455 2.00318 -0.861272
2010-09-02 04:20:04 51°13.663 2°55.959 20.3755 0.334455 2.003214 -0.861272
2010-09-02 04:20:08 51°13.662 2°55.959 20.3758 0.334455 2.003248 -0.826448
2010-09-02 04:20:13 51°13.661 2°55.959 20.376 0.334455 2.003282 -0.826448
2010-09-02 04:20:19 51°13.661 2°55.959 20.3769 0.334455 2.003282 -0.826448
2010-09-02 04:20:24 51°13.662 2°55.959 20.3773 0.334455 2.003282 -0.826448
2010-09-02 04:20:28 51°13.662 2°55.959 20.378 0.334455 2.00335 -0.861272
2010-09-02 04:20:33 51°13.663 2°55.96 20.3781 0.334455 2.00335 -0.826448
2010-09-02 04:20:39 51°13.663 2°55.96 20.379 0.334455 2.003384 -0.861272
2010-09-02 04:20:44 51°13.663 2°55.96 20.3793 0.334455 2.003384 -0.791624
2010-09-02 04:20:48 51°13.663 2°55.96 20.3791 0.334455 2.003384 -0.791624
2010-09-02 04:20:53 51°13.664 2°55.96 20.3791 0.334455 2.003384 -0.861272
2010-09-02 04:20:59 51°13.664 2°55.96 20.3796 0.334455 2.003452 -0.826448
2010-09-02 04:21:04 51°13.664 2°55.96 20.3799 0.334455 2.003452 -0.826448
2010-09-02 04:21:08 51°13.663 2°55.96 20.3793 0.334455 2.003485 -0.826448
2010-09-02 04:21:13 51°13.663 2°55.96 20.3788 0.334455 2.003519 -0.861272
2010-09-02 04:21:19 51°13.663 2°55.96 20.3781 0.334455 2.003519 -0.861272
2010-09-02 04:21:23 51°13.663 2°55.96 20.372 0.334455 2.003519 -0.861272
2010-09-02 04:21:28 51°13.664 2°55.96 20.3689 0.334455 2.003587 -0.861272
2010-09-02 04:21:33 51°13.664 2°55.96 20.3691 0.334455 2.003553 -0.826448
2010-09-02 04:21:39 51°13.664 2°55.96 20.3707 0.334455 2.003621 -0.861272
2010-09-02 04:21:44 51°13.664 2°55.96 20.3715 0.334455 2.003621 -0.826448
2010-09-02 04:21:49 51°13.664 2°55.96 20.3748 0.334455 2.003655 -0.861272
2010-09-02 04:21:53 51°13.664 2°55.96 20.3776 0.334455 2.003655 -0.861272
2010-09-02 04:21:58 51°13.663 2°55.96 20.3774 0.334455 2.003689 -0.826448
2010-09-02 04:22:03 51°13.663 2°55.96 20.3781 0.334455 2.003723 -0.861272
2010-09-02 04:22:08 51°13.664 2°55.96 20.3787 0.334455 2.003757 -0.826448
2010-09-02 04:22:13 51°13.663 2°55.96 20.3791 0.334455 2.003825 -0.826448
2010-09-02 04:22:19 51°13.663 2°55.96 20.3793 0.334455 2.003791 -0.861272
2010-09-02 04:22:23 51°13.663 2°55.96 20.3797 0.334455 2.003791 -0.861272
2010-09-02 04:22:28 51°13.663 2°55.959 20.3803 0.33435 2.003163 -0.826448
2010-09-02 04:22:32 51°13.663 2°55.959 20.3801 0.33435 2.003197 -0.861272
2010-09-02 04:22:38 51°13.663 2°55.959 20.3803 0.33435 2.00323 -0.826448
2010-09-02 04:22:43 51°13.663 2°55.959 20.3794 0.33435 2.003264 -0.826448
2010-09-02 04:22:48 51°13.663 2°55.959 20.3793 0.33435 2.003264 -0.861272
2010-09-02 04:22:52 51°13.663 2°55.959 20.3784 0.33435 2.003264 -0.861272
2010-09-02 04:22:59 51°13.663 2°55.959 20.3779 0.33435 2.003332 -0.826448
2010-09-02 04:23:03 51°13.662 2°55.959 20.3776 0.33435 2.003332 -0.861272
2010-09-02 04:23:08 51°13.662 2°55.959 20.3752 0.33435 2.0034 -0.826448
2010-09-02 04:23:12 51°13.663 2°55.96 20.3714 0.33435 2.003434 -0.861272
2010-09-02 04:23:19 51°13.663 2°55.96 20.3714 0.33435 2.003434 -0.861272
2010-09-02 04:23:24 51°13.663 2°55.96 20.376 0.33435 2.003502 -0.861272
2010-09-02 04:23:29 51°13.662 2°55.96 20.3767 0.33435 2.003502 -0.826448
2010-09-02 04:23:33 51°13.662 2°55.96 20.3769 0.33435 2.003502 -0.826448
2010-09-02 04:23:38 51°13.662 2°55.96 20.3787 0.33435 2.003502 -0.861272
2010-09-02 04:23:44 51°13.662 2°55.96 20.3799 0.33435 2.003536 -0.826448
2010-09-02 04:23:49 51°13.662 2°55.96 20.3805 0.33435 2.00357 -0.861272
2010-09-02 04:23:53 51°13.662 2°55.96 20.3809 0.33435 2.00357 -0.861272
2010-09-02 04:23:58 51°13.662 2°55.96 20.3788 0.33435 2.003604 -0.861272
2010-09-02 04:24:04 51°13.662 2°55.959 20.3788 0.33435 2.003638 -0.861272
2010-09-02 04:24:09 51°13.662 2°55.959 20.3791 0.33435 2.003706 -0.826448
2010-09-02 04:24:13 51°13.661 2°55.96 20.3802 0.33435 2.003672 -0.861272
2010-09-02 04:24:19 51°13.662 2°55.96 20.3805 0.33435 2.003706 -0.791624
2010-09-02 04:24:24 51°13.662 2°55.96 20.3807 0.33435 2.003706 -0.791624
2010-09-02 04:24:29 51°13.661 2°55.96 20.3812 0.33435 2.003739 -0.826448
2010-09-02 04:24:33 51°13.661 2°55.96 20.3811 0.33435 2.003739 -0.826448
2010-09-02 04:24:39 51°13.661 2°55.96 20.3779 0.33435 2.003773 -0.826448
2010-09-02 04:24:44 51°13.661 2°55.96 20.369 0.33435 2.003807 -0.861272
2010-09-02 04:24:49 51°13.661 2°55.959 20.3623 0.33435 2.003807 -0.861272
2010-09-02 04:24:53 51°13.662 2°55.959 20.3607 0.33435 2.003841 -0.826448
2010-09-02 04:24:59 51°13.662 2°55.958 20.3359 0.33435 2.003909 -0.826448
2010-09-02 04:25:04 51°13.663 2°55.956 20.3176 0.33435 2.003875 -0.826448
2010-09-02 04:25:09 51°13.663 2°55.953 20.3493 0.334246 2.003281 -0.861272
2010-09-02 04:25:13 51°13.664 2°55.951 20.3614 0.33435 2.003977 -0.826448
2010-09-02 04:25:19 51°13.666 2°55.946 20.3533 0.334246 2.003383 -0.896096
2010-09-02 04:25:24 51°13.667 2°55.942 20.3596 0.334246 2.003383 -0.896096
2010-09-02 04:25:29 51°13.668 2°55.937 20.3582 0.334246 2.003383 -0.826448
2010-09-02 04:25:35 51°13.67 2°55.929 20.3606 0.334246 2.003417 -0.826448
2010-09-02 04:25:41 51°13.671 2°55.922 20.3617 0.334246 2.003451 -0.791624
2010-09-02 04:25:47 51°13.674 2°55.913 20.362 0.334246 2.003484 -0.896096
2010-09-02 04:25:52 51°13.675 2°55.905 20.3614 0.334246 2.003518 -0.861272
2010-09-02 04:25:57 51°13.676 2°55.897 20.3788 0.334246 2.003518 -0.861272
2010-09-02 04:26:02 51°13.678 2°55.889 20.374 0.334246 2.003518 -0.861272
2010-09-02 04:26:07 51°13.68 2°55.88 20.38 0.334246 2.003552 -0.861272
2010-09-02 04:26:12 51°13.682 2°55.871 20.3834 0.334246 2.003586 -0.791624
2010-09-02 04:26:17 51°13.683 2°55.862 20.3806 0.334246 2.003586 -0.826448
2010-09-02 04:26:22 51°13.685 2°55.853 20.3768 0.334246 2.003586 -0.826448
2010-09-02 04:26:27 51°13.686 2°55.844 20.3771 0.334246 2.003586 -0.826448
2010-09-02 04:26:32 51°13.688 2°55.835 20.3799 0.334246 2.003586 -0.826448
2010-09-02 04:26:37 51°13.689 2°55.827 20.3793 0.334246 2.00362 -0.826448
2010-09-02 04:26:42 51°13.691 2°55.818 20.3786 0.334246 2.00362 -0.826448
2010-09-02 04:26:47 51°13.692 2°55.81 20.3778 0.334246 2.003654 -0.826448
2010-09-02 04:26:52 51°13.693 2°55.802 20.3763 0.334246 2.003654 -0.826448
2010-09-02 04:26:57 51°13.695 2°55.794 20.3773 0.334246 2.00362 -0.861272
2010-09-02 04:27:02 51°13.696 2°55.786 20.3784 0.334246 2.003688 -0.861272
2010-09-02 04:27:07 51°13.697 2°55.778 20.3789 0.334246 2.003688 -0.861272
2010-09-02 04:27:12 51°13.698 2°55.77 20.3777 0.334246 2.003688 -0.826448
2010-09-02 04:27:17 51°13.699 2°55.763 20.3788 0.334142 2.003094 -0.826448
2010-09-02 04:27:22 51°13.7 2°55.756 20.3787 0.334246 2.003722 -0.791624
2010-09-02 04:27:27 51°13.701 2°55.75 20.3625 0.334246 2.003722 -0.791624
2010-09-02 04:27:32 51°13.701 2°55.744 20.3616 0.334142 2.003094 -0.826448
2010-09-02 04:27:37 51°13.702 2°55.74 20.3745 0.334246 2.003756 -0.826448
2010-09-02 04:27:41 51°13.702 2°55.737 20.3749 0.334142 2.003128 -0.791624
2010-09-02 04:27:46 51°13.703 2°55.734 20.38 0.334142 2.003128 -0.826448
2010-09-02 04:27:51 51°13.703 2°55.732 20.3823 0.334142 2.003161 -0.861272
2010-09-02 04:27:56 51°13.703 2°55.73 20.3879 0.334142 2.003161 -0.861272
2010-09-02 04:28:01 51°13.704 2°55.73 20.3871 0.334142 2.003128 -0.861272
2010-09-02 04:28:06 51°13.705 2°55.73 20.3885 0.334142 2.003161 -0.861272
2010-09-02 04:28:11 51°13.706 2°55.731 20.3882 0.334142 2.003195 -0.826448
2010-09-02 04:28:15 51°13.707 2°55.732 20.3754 0.334142 2.003229 -0.826448
2010-09-02 04:28:21 51°13.707 2°55.733 20.3687 0.334142 2.003229 -0.826448
2010-09-02 04:28:25 51°13.708 2°55.734 20.3465 0.334142 2.003263 -0.826448
2010-09-02 04:28:30 51°13.708 2°55.734 20.3506 0.334142 2.003297 -0.826448
2010-09-02 04:28:35 51°13.709 2°55.734 20.3652 0.334142 2.003331 -0.826448
2010-09-02 04:28:40 51°13.709 2°55.733 20.3323 0.334142 2.003331 -0.826448
2010-09-02 04:28:45 51°13.709 2°55.732 20.3553 0.334142 2.003365 -0.826448
2010-09-02 04:28:49 51°13.708 2°55.731 20.3667 0.334142 2.003365 -0.826448
2010-09-02 04:28:54 51°13.708 2°55.729 20.3658 0.334142 2.003365 -0.826448
2010-09-02 04:28:59 51°13.706 2°55.728 20.3729 0.334142 2.003365 -0.861272
2010-09-02 04:29:04 51°13.705 2°55.726 20.3698 0.334142 2.003365 -0.861272
2010-09-02 04:29:09 51°13.704 2°55.724 20.3651 0.334142 2.003399 -0.791624
2010-09-02 04:29:14 51°13.703 2°55.723 20.3617 0.334142 2.003331 -0.826448
2010-09-02 04:29:19 51°13.702 2°55.722 20.3687 0.334142 2.003399 -0.826448
2010-09-02 04:29:24 51°13.701 2°55.721 20.3718 0.334142 2.003399 -0.826448
2010-09-02 04:29:29 51°13.701 2°55.72 20.3737 0.334142 2.003399 -0.826448
2010-09-02 04:29:35 51°13.7 2°55.719 20.3746 0.334142 2.003467 -0.861272
2010-09-02 04:29:40 51°13.7 2°55.719 20.3751 0.334037 2.002838 -0.826448
2010-09-02 04:29:45 51°13.7 2°55.718 20.3752 0.334037 2.002872 -0.826448
2010-09-02 04:29:49 51°13.7 2°55.718 20.3765 0.334037 2.002872 -0.826448
2010-09-02 04:29:54 51°13.701 2°55.718 20.3761 0.334037 2.002906 -0.826448
2010-09-02 04:29:59 51°13.701 2°55.717 20.3763 0.334037 2.002974 -0.861272
2010-09-02 04:30:04 51°13.702 2°55.717 20.3773 0.334037 2.003008 -0.826448
2010-09-02 04:30:09 51°13.703 2°55.717 20.378 0.334037 2.003042 -0.861272
2010-09-02 04:30:13 51°13.704 2°55.717 20.3806 0.334037 2.003076 -0.861272
2010-09-02 04:30:19 51°13.706 2°55.716 20.3846 0.334037 2.003076 -0.861272
2010-09-02 04:30:24 51°13.707 2°55.715 20.3862 0.334037 2.003144 -0.861272
2010-09-02 04:30:29 51°13.709 2°55.714 20.3896 0.334037 2.003212 -0.861272
2010-09-02 04:30:33 51°13.711 2°55.713 20.3924 0.334037 2.003246 -0.861272
2010-09-02 04:30:39 51°13.714 2°55.711 20.3878 0.334037 2.00328 -0.826448
2010-09-02 04:30:44 51°13.716 2°55.709 20.3874 0.334037 2.00328 -0.861272
2010-09-02 04:30:49 51°13.718 2°55.706 20.3835 0.334037 2.00328 -0.826448
2010-09-02 04:30:53 51°13.72 2°55.704 20.3794 0.334037 2.00328 -0.826448
2010-09-02 04:30:59 51°13.725 2°55.7 20.3707 0.334037 2.003314 -0.826448
2010-09-02 04:31:04 51°13.729 2°55.696 20.3698 0.334037 2.003348 -0.861272
2010-09-02 04:31:09 51°13.735 2°55.693 20.3762 0.334037 2.003382 -0.826448
2010-09-02 04:31:13 51°13.739 2°55.689 20.378 0.334037 2.003382 -0.826448
2010-09-02 04:31:19 51°13.747 2°55.684 20.3771 0.334037 2.003484 -0.861272
2010-09-02 04:31:24 51°13.753 2°55.68 20.3697 0.334037 2.003484 -0.861272
2010-09-02 04:31:29 51°13.761 2°55.675 20.365 0.333933 2.002855 -0.791624
2010-09-02 04:31:33 51°13.767 2°55.671 20.3596 0.334037 2.003518 -0.826448
2010-09-02 04:31:39 51°13.777 2°55.665 20.3576 0.333933 2.002855 -0.861272
2010-09-02 04:31:44 51°13.785 2°55.659 20.3527 0.333933 2.002889 -0.861272
2010-09-02 04:31:49 51°13.794 2°55.652 20.3589 0.333933 2.002923 -0.826448
2010-09-02 04:31:53 51°13.801 2°55.647 20.3398 0.333933 2.002923 -0.826448
2010-09-02 04:31:59 51°13.812 2°55.638 20.3435 0.333933 2.002991 -0.861272
2010-09-02 04:32:04 51°13.822 2°55.632 20.341 0.333933 2.003059 -0.826448
2010-09-02 04:32:09 51°13.833 2°55.624 20.3115 0.333933 2.003127 -0.826448
2010-09-02 04:32:13 51°13.841 2°55.618 20.3238 0.333933 2.003127 -0.826448
2010-09-02 04:32:19 51°13.854 2°55.609 20.3186 0.333933 2.003127 -0.826448
2010-09-02 04:32:24 51°13.866 2°55.601 20.2904 0.333933 2.003161 -0.826448
2010-09-02 04:32:29 51°13.876 2°55.592 20.2679 0.333933 2.003229 -0.861272
2010-09-02 04:32:33 51°13.886 2°55.586 20.2704 0.333933 2.003229 -0.861272
2010-09-02 04:32:39 51°13.9 2°55.576 20.2742 0.333933 2.003263 -0.861272
2010-09-02 04:32:43 51°13.91 2°55.569 20.2759 0.333933 2.003263 -0.826448
2010-09-02 04:32:49 51°13.924 2°55.559 20.2642 0.333933 2.003365 -0.861272
2010-09-02 04:32:53 51°13.934 2°55.552 20.2561 0.333933 2.003365 -0.861272
2010-09-02 04:32:58 51°13.946 2°55.544 20.2558 0.333933 2.003399 -0.861272
2010-09-02 04:33:04 51°13.96 2°55.533 20.2506 0.333933 2.003501 -0.826448
2010-09-02 04:33:09 51°13.973 2°55.525 20.2413 0.333933 2.003535 -0.861272
2010-09-02 04:33:13 51°13.983 2°55.518 20.2524 0.333933 2.003568 -0.826448
2010-09-02 04:33:19 51°13.997 2°55.507 20.2417 0.333933 2.00367 -0.826448
2010-09-02 04:33:24 51°14.01 2°55.499 20.2717 0.333933 2.00367 -0.826448
2010-09-02 04:33:29 51°14.023 2°55.491 20.2724 0.333933 2.003602 -0.791624
2010-09-02 04:33:33 51°14.033 2°55.484 20.2674 0.333933 2.003704 -0.861272
2010-09-02 04:33:39 51°14.048 2°55.474 20.2855 0.333933 2.003738 -0.826448
2010-09-02 04:33:44 51°14.06 2°55.465 20.2836 0.333933 2.003772 -0.861272
2010-09-02 04:33:49 51°14.072 2°55.455 20.2886 0.333933 2.003772 -0.861272
2010-09-02 04:33:53 51°14.082 2°55.448 20.299 0.333933 2.00384 -0.826448
2010-09-02 04:33:59 51°14.097 2°55.437 20.294 0.333829 2.003245 -0.826448
2010-09-02 04:34:04 51°14.11 2°55.428 20.2974 0.333933 2.003977 -0.861272
2010-09-02 04:34:09 51°14.122 2°55.419 20.3129 0.333933 2.003977 -0.791624
2010-09-02 04:34:13 51°14.132 2°55.411 20.2944 0.333829 2.003347 -0.826448
2010-09-02 04:34:19 51°14.147 2°55.399 20.2864 0.333933 2.004079 -0.861272
2010-09-02 04:34:24 51°14.159 2°55.39 20.3112 0.333933 2.004079 -0.861272
2010-09-02 04:34:29 51°14.171 2°55.38 20.2931 0.333933 2.004113 -0.826448
2010-09-02 04:34:33 51°14.181 2°55.372 20.3055 0.333829 2.003517 -0.826448
2010-09-02 04:34:38 51°14.193 2°55.362 20.3118 0.333829 2.003551 -0.861272
2010-09-02 04:34:44 51°14.208 2°55.35 20.3333 0.333829 2.003551 -0.861272
2010-09-02 04:34:49 51°14.22 2°55.34 20.3336 0.333829 2.003585 -0.826448
2010-09-02 04:34:53 51°14.23 2°55.331 20.317 0.333829 2.003585 -0.826448
2010-09-02 04:34:58 51°14.242 2°55.32 20.3335 0.333829 2.003653 -0.826448
2010-09-02 04:35:03 51°14.254 2°55.309 20.3097 0.333829 2.003687 -0.861272
2010-09-02 04:35:09 51°14.269 2°55.295 20.2905 0.333829 2.003721 -0.861272
2010-09-02 04:35:13 51°14.28 2°55.286 20.2727 0.333829 2.003721 -0.861272
2010-09-02 04:35:19 51°14.295 2°55.272 20.2819 0.333829 2.003721 -0.861272
2010-09-02 04:35:24 51°14.308 2°55.261 20.3196 0.333829 2.003721 -0.861272
2010-09-02 04:35:29 51°14.321 2°55.25 20.3405 0.333829 2.003721 -0.791624
2010-09-02 04:35:33 51°14.331 2°55.24 20.3391 0.333829 2.003823 -0.826448
2010-09-02 04:35:39 51°14.346 2°55.225 20.342 0.333829 2.003891 -0.826448
2010-09-02 04:35:44 51°14.359 2°55.212 20.334 0.333829 2.00396 -0.826448
2010-09-02 04:35:49 51°14.371 2°55.198 20.3033 0.333829 2.00396 -0.826448
2010-09-02 04:35:53 51°14.381 2°55.187 20.2577 0.333829 2.003994 -0.826448
2010-09-02 04:35:59 51°14.396 2°55.17 20.2649 0.333829 2.004028 -0.861272
2010-09-02 04:36:04 51°14.409 2°55.156 20.2969 0.333829 2.00396 -0.826448
2010-09-02 04:36:09 51°14.422 2°55.143 20.2668 0.333725 2.003262 -0.826448
2010-09-02 04:36:13 51°14.433 2°55.132 20.304 0.333829 2.003891 -0.826448
2010-09-02 04:36:19 51°14.449 2°55.116 20.2943 0.333725 2.003262 -0.861272
2010-09-02 04:36:24 51°14.463 2°55.103 20.3061 0.333725 2.003262 -0.861272
2010-09-02 04:36:29 51°14.476 2°55.089 20.2946 0.333829 2.004028 -0.826448
2010-09-02 04:36:33 51°14.487 2°55.078 20.278 0.333829 2.00413 -0.826448
2010-09-02 04:36:39 51°14.504 2°55.062 20.277 0.333725 2.003466 -0.861272
2010-09-02 04:36:44 51°14.518 2°55.049 20.3258 0.333829 2.004164 -0.826448
2010-09-02 04:36:49 51°14.533 2°55.036 20.2933 0.333725 2.003466 -0.791624
2010-09-02 04:36:53 51°14.544 2°55.026 20.2632 0.333725 2.003466 -0.791624
2010-09-02 04:36:59 51°14.562 2°55.011 20.2948 0.333725 2.0035 -0.861272
2010-09-02 04:37:03 51°14.574 2°55.001 20.3162 0.333829 2.004096 -0.826448
2010-09-02 04:37:09 51°14.592 2°54.986 20.31 0.333725 2.0035 -0.826448
2010-09-02 04:37:13 51°14.604 2°54.976 20.3128 0.333829 2.004198 -0.861272
2010-09-02 04:37:18 51°14.619 2°54.962 20.305 0.333829 2.004198 -0.861272
2010-09-02 04:37:23 51°14.634 2°54.948 20.2968 0.333725 2.00367 -0.861272
2010-09-02 04:37:29 51°14.652 2°54.931 20.3058 0.333725 2.003738 -0.826448
2010-09-02 04:37:33 51°14.664 2°54.92 20.3262 0.333725 2.003772 -0.826448
2010-09-02 04:37:39 51°14.682 2°54.901 20.3258 0.333725 2.003772 -0.861272
2010-09-02 04:37:44 51°14.696 2°54.885 20.2933 0.333725 2.00384 -0.826448
2010-09-02 04:37:49 51°14.71 2°54.87 20.2758 0.333725 2.003806 -0.861272
2010-09-02 04:37:54 51°14.725 2°54.853 20.2804 0.333725 2.003806 -0.861272
2010-09-02 04:37:59 51°14.739 2°54.837 20.2795 0.333725 2.003806 -0.826448
2010-09-02 04:38:04 51°14.754 2°54.821 20.2604 0.333725 2.003806 -0.861272
2010-09-02 04:38:09 51°14.769 2°54.805 20.3 0.333725 2.00384 -0.826448
2010-09-02 04:38:13 51°14.78 2°54.792 20.2881 0.333725 2.003943 -0.826448
2010-09-02 04:38:19 51°14.798 2°54.773 20.26 0.333725 2.003977 -0.861272
2010-09-02 04:38:24 51°14.813 2°54.757 20.3005 0.333725 2.003977 -0.861272
2010-09-02 04:38:29 51°14.827 2°54.741 20.2989 0.33362 2.003347 -0.826448
2010-09-02 04:38:33 51°14.839 2°54.729 20.2914 0.333725 2.004079 -0.826448
2010-09-02 04:38:38 51°14.853 2°54.713 20.2997 0.33362 2.003347 -0.826448
2010-09-02 04:38:43 51°14.868 2°54.697 20.2855 0.333725 2.004045 -0.826448
2010-09-02 04:38:49 51°14.885 2°54.677 20.3064 0.333725 2.004045 -0.826448
2010-09-02 04:38:53 51°14.897 2°54.664 20.3038 0.333725 2.004113 -0.826448
2010-09-02 04:38:58 51°14.911 2°54.647 20.306 0.33362 2.003517 -0.861272
2010-09-02 04:39:04 51°14.928 2°54.626 20.2853 0.333725 2.004215 -0.826448
2010-09-02 04:39:09 51°14.942 2°54.609 20.3064 0.333725 2.004283 -0.826448
2010-09-02 04:39:13 51°14.953 2°54.596 20.2796 0.33362 2.003585 -0.861272
2010-09-02 04:39:18 51°14.967 2°54.578 20.2989 0.33362 2.003585 -0.861272
2010-09-02 04:39:23 51°14.981 2°54.561 20.292 0.333725 2.004351 -0.826448
2010-09-02 04:39:29 51°14.997 2°54.54 20.3036 0.333725 2.004385 -0.791624
2010-09-02 04:39:33 51°15.008 2°54.526 20.2723 0.33362 2.003721 -0.861272
2010-09-02 04:39:38 51°15.022 2°54.509 20.3054 0.33362 2.00379 -0.826448
2010-09-02 04:39:43 51°15.037 2°54.492 20.3 0.33362 2.00379 -0.861272
2010-09-02 04:39:49 51°15.053 2°54.471 20.2919 0.333725 2.004521 -0.861272
2010-09-02 04:39:53 51°15.065 2°54.457 20.3065 0.333725 2.004521 -0.861272
2010-09-02 04:39:59 51°15.081 2°54.436 20.3031 0.33362 2.003892 -0.826448
2010-09-02 04:40:03 51°15.093 2°54.423 20.3045 0.33362 2.003926 -0.861272
2010-09-02 04:40:08 51°15.107 2°54.405 20.2774 0.33362 2.00396 -0.861272
2010-09-02 04:40:13 51°15.121 2°54.387 20.3044 0.33362 2.004028 -0.861272
2010-09-02 04:40:18 51°15.134 2°54.37 20.2901 0.33362 2.004028 -0.826448
2010-09-02 04:40:23 51°15.148 2°54.353 20.2941 0.33362 2.004028 -0.826448
2010-09-02 04:40:29 51°15.165 2°54.332 20.3062 0.333516 2.003398 -0.826448
2010-09-02 04:40:33 51°15.177 2°54.318 20.2828 0.33362 2.004096 -0.826448
2010-09-02 04:40:38 51°15.19 2°54.301 20.2985 0.333516 2.003466 -0.861272
2010-09-02 04:40:44 51°15.207 2°54.28 20.303 0.33362 2.004198 -0.826448
2010-09-02 04:40:49 51°15.222 2°54.263 20.3047 0.33362 2.004232 -0.861272
2010-09-02 04:40:53 51°15.233 2°54.249 20.3079 0.33362 2.004232 -0.861272
2010-09-02 04:40:59 51°15.249 2°54.228 20.3049 0.33362 2.0043 -0.826448
2010-09-02 04:41:04 51°15.263 2°54.211 20.2806 0.33362 2.004334 -0.861272
2010-09-02 04:41:09 51°15.277 2°54.194 20.2921 0.333516 2.003705 -0.861272
2010-09-02 04:41:13 51°15.288 2°54.18 20.293 0.33362 2.004368 -0.826448
2010-09-02 04:41:18 51°15.303 2°54.162 20.3008 0.33362 2.004368 -0.826448
2010-09-02 04:41:24 51°15.319 2°54.141 20.3075 0.33362 2.004403 -0.861272
2010-09-02 04:41:29 51°15.334 2°54.124 20.3005 0.33362 2.004471 -0.826448
2010-09-02 04:41:33 51°15.345 2°54.11 20.3071 0.33362 2.004505 -0.826448
2010-09-02 04:41:38 51°15.359 2°54.093 20.2933 0.33362 2.004607 -0.826448
2010-09-02 04:41:43 51°15.373 2°54.075 20.3135 0.33362 2.004573 -0.826448
2010-09-02 04:41:49 51°15.39 2°54.055 20.2948 0.333516 2.003943 -0.861272
2010-09-02 04:41:53 51°15.401 2°54.041 20.3022 0.333516 2.003943 -0.861272
2010-09-02 04:41:58 51°15.415 2°54.024 20.2899 0.333516 2.004011 -0.861272
2010-09-02 04:42:03 51°15.429 2°54.006 20.2984 0.333516 2.004011 -0.826448
2010-09-02 04:42:09 51°15.446 2°53.985 20.3004 0.33362 2.004709 -0.826448
2010-09-02 04:42:13 51°15.457 2°53.971 20.2929 0.333516 2.004079 -0.826448
2010-09-02 04:42:19 51°15.473 2°53.95 20.3064 0.33362 2.004811 -0.826448
2010-09-02 04:42:23 51°15.485 2°53.936 20.3109 0.33362 2.004811 -0.826448
2010-09-02 04:42:28 51°15.499 2°53.919 20.2924 0.333516 2.004113 -0.826448
2010-09-02 04:42:33 51°15.513 2°53.901 20.3064 0.33362 2.00488 -0.826448
2010-09-02 04:42:39 51°15.529 2°53.88 20.2787 0.333516 2.004216 -0.826448
2010-09-02 04:42:43 51°15.54 2°53.866 20.281 0.333516 2.004216 -0.861272
2010-09-02 04:42:49 51°15.557 2°53.846 20.2989 0.333516 2.004216 -0.861272
2010-09-02 04:42:53 51°15.569 2°53.832 20.3059 0.333516 2.004216 -0.861272
2010-09-02 04:42:58 51°15.583 2°53.816 20.2959 0.333516 2.004284 -0.826448
2010-09-02 04:43:04 51°15.6 2°53.796 20.2994 0.333516 2.004352 -0.861272
2010-09-02 04:43:09 51°15.614 2°53.779 20.3005 0.333516 2.004352 -0.861272
2010-09-02 04:43:13 51°15.625 2°53.766 20.2884 0.333516 2.004352 -0.826448
2010-09-02 04:43:18 51°15.64 2°53.75 20.31 0.333516 2.004352 -0.826448
2010-09-02 04:43:23 51°15.654 2°53.733 20.2929 0.333516 2.00442 -0.861272
2010-09-02 04:43:29 51°15.672 2°53.714 20.2975 0.333516 2.00442 -0.861272
2010-09-02 04:43:33 51°15.683 2°53.7 20.309 0.333516 2.004454 -0.861272
2010-09-02 04:43:38 51°15.697 2°53.684 20.3019 0.333516 2.004488 -0.861272
2010-09-02 04:43:43 51°15.712 2°53.667 20.2866 0.333412 2.003824 -0.826448
2010-09-02 04:43:49 51°15.729 2°53.648 20.3018 0.33362 2.005186 -0.861272
2010-09-02 04:43:53 51°15.74 2°53.635 20.2981 0.33362 2.005186 -0.861272
2010-09-02 04:43:58 51°15.755 2°53.619 20.3022 0.333516 2.004556 -0.861272
2010-09-02 04:44:03 51°15.769 2°53.602 20.3083 0.333412 2.003926 -0.826448
2010-09-02 04:44:09 51°15.786 2°53.583 20.2883 0.333516 2.00459 -0.861272
2010-09-02 04:44:13 51°15.798 2°53.57 20.3 0.333516 2.004659 -0.826448
2010-09-02 04:44:18 51°15.813 2°53.554 20.2885 0.333516 2.004659 -0.826448
2010-09-02 04:44:23 51°15.828 2°53.538 20.2982 0.333412 2.003994 -0.826448
2010-09-02 04:44:29 51°15.846 2°53.52 20.2943 0.333516 2.004659 -0.826448
2010-09-02 04:44:33 51°15.858 2°53.508 20.3039 0.333412 2.004063 -0.826448
2010-09-02 04:44:38 51°15.873 2°53.493 20.3033 0.333516 2.004693 -0.861272
2010-09-02 04:44:43 51°15.888 2°53.478 20.3058 0.333412 2.004063 -0.861272
2010-09-02 04:44:49 51°15.906 2°53.461 20.2849 0.333412 2.004063 -0.861272
2010-09-02 04:44:53 51°15.918 2°53.449 20.3128 0.333516 2.004795 -0.826448
2010-09-02 04:44:58 51°15.934 2°53.435 20.3012 0.333412 2.004131 -0.826448
2010-09-02 04:45:03 51°15.949 2°53.421 20.3055 0.333516 2.004897 -0.861272
2010-09-02 04:45:09 51°15.968 2°53.404 20.2899 0.333516 2.004863 -0.861272
2010-09-02 04:45:13 51°15.98 2°53.392 20.3075 0.333516 2.004931 -0.861272
2010-09-02 04:45:18 51°15.996 2°53.379 20.2942 0.333412 2.004233 -0.826448
2010-09-02 04:45:23 51°16.011 2°53.365 20.3041 0.333412 2.004233 -0.826448
2010-09-02 04:45:29 51°16.03 2°53.349 20.3182 0.333412 2.004301 -0.861272
2010-09-02 04:45:33 51°16.043 2°53.338 20.2945 0.333516 2.005 -0.826448
2010-09-02 04:45:38 51°16.059 2°53.324 20.3112 0.333412 2.004335 -0.826448
2010-09-02 04:45:43 51°16.074 2°53.31 20.287 0.333412 2.004403 -0.861272
2010-09-02 04:45:49 51°16.093 2°53.294 20.3102 0.333412 2.004403 -0.861272
2010-09-02 04:45:53 51°16.106 2°53.283 20.3023 0.333516 2.005102 -0.861272
2010-09-02 04:45:58 51°16.121 2°53.27 20.3092 0.333412 2.004506 -0.826448
2010-09-02 04:46:04 51°16.14 2°53.254 20.3125 0.333412 2.004506 -0.861272
2010-09-02 04:46:09 51°16.155 2°53.24 20.306 0.333412 2.004574 -0.861272
2010-09-02 04:46:13 51°16.168 2°53.229 20.2953 0.333412 2.00454 -0.826448
2010-09-02 04:46:18 51°16.183 2°53.216 20.3062 0.333412 2.004608 -0.826448
2010-09-02 04:46:23 51°16.199 2°53.202 20.3072 0.333412 2.004608 -0.826448
2010-09-02 04:46:29 51°16.217 2°53.186 20.3136 0.333412 2.004642 -0.826448
2010-09-02 04:46:33 51°16.23 2°53.175 20.2899 0.333412 2.004642 -0.861272
2010-09-02 04:46:38 51°16.245 2°53.162 20.3101 0.333307 2.004012 -0.826448
2010-09-02 04:46:43 51°16.261 2°53.148 20.3213 0.333412 2.004744 -0.826448
2010-09-02 04:46:49 51°16.279 2°53.132 20.2898 0.333412 2.004744 -0.826448
2010-09-02 04:46:53 51°16.292 2°53.121 20.3145 0.333412 2.004744 -0.826448
2010-09-02 04:46:59 51°16.31 2°53.105 20.3032 0.333412 2.004779 -0.826448
2010-09-02 04:47:03 51°16.323 2°53.094 20.3108 0.333412 2.004813 -0.861272
2010-09-02 04:47:08 51°16.338 2°53.08 20.3142 0.333412 2.004881 -0.861272
2010-09-02 04:47:13 51°16.353 2°53.066 20.3011 0.333412 2.004881 -0.826448
2010-09-02 04:47:18 51°16.369 2°53.052 20.3109 0.333412 2.004983 -0.861272
2010-09-02 04:47:23 51°16.384 2°53.039 20.3195 0.333412 2.004983 -0.861272
2010-09-02 04:47:29 51°16.403 2°53.023 20.3007 0.333412 2.004949 -0.826448
2010-09-02 04:47:33 51°16.415 2°53.012 20.3139 0.333307 2.004353 -0.826448
2010-09-02 04:47:38 51°16.43 2°52.998 20.3166 0.333516 2.00575 -0.861272
2010-09-02 04:47:43 51°16.446 2°52.985 20.3163 0.333307 2.004387 -0.826448
2010-09-02 04:47:49 51°16.464 2°52.968 20.3101 0.333412 2.005086 -0.861272
2010-09-02 04:47:53 51°16.476 2°52.957 20.306 0.333412 2.005086 -0.861272
2010-09-02 04:47:58 51°16.492 2°52.944 20.3133 0.333412 2.005154 -0.826448
2010-09-02 04:48:03 51°16.507 2°52.93 20.3145 0.333307 2.004489 -0.826448
2010-09-02 04:48:09 51°16.526 2°52.913 20.3213 0.333307 2.004523 -0.826448
2010-09-02 04:48:13 51°16.538 2°52.903 20.3108 0.333412 2.005256 -0.826448
2010-09-02 04:48:18 51°16.553 2°52.889 20.3046 0.333412 2.005256 -0.826448
2010-09-02 04:48:24 51°16.572 2°52.872 20.3232 0.333412 2.00529 -0.826448
2010-09-02 04:48:29 51°16.587 2°52.859 20.3089 0.333307 2.004592 -0.861272
2010-09-02 04:48:33 51°16.599 2°52.848 20.311 0.333307 2.00466 -0.861272
2010-09-02 04:48:39 51°16.618 2°52.832 20.3164 0.333307 2.004728 -0.791624
2010-09-02 04:48:43 51°16.63 2°52.821 20.3153 0.333307 2.004728 -0.826448
2010-09-02 04:48:49 51°16.648 2°52.805 20.3035 0.333412 2.005393 -0.826448
2010-09-02 04:48:53 51°16.661 2°52.794 20.3098 0.333412 2.005393 -0.826448
2010-09-02 04:48:58 51°16.677 2°52.781 20.3126 0.333307 2.004796 -0.826448
2010-09-02 04:49:03 51°16.692 2°52.768 20.3026 0.333307 2.004762 -0.826448
2010-09-02 04:49:09 51°16.712 2°52.753 20.3073 0.333307 2.004796 -0.861272
2010-09-02 04:49:13 51°16.724 2°52.743 20.3076 0.333307 2.00483 -0.826448
2010-09-02 04:49:18 51°16.74 2°52.731 20.3188 0.333307 2.00483 -0.861272
2010-09-02 04:49:23 51°16.757 2°52.72 20.287 0.333307 2.00483 -0.861272
2010-09-02 04:49:28 51°16.773 2°52.708 20.3095 0.333412 2.005598 -0.826448
2010-09-02 04:49:33 51°16.79 2°52.698 20.3114 0.333307 2.004865 -0.826448
2010-09-02 04:49:38 51°16.806 2°52.688 20.3219 0.333307 2.004967 -0.861272
2010-09-02 04:49:43 51°16.823 2°52.678 20.3103 0.333307 2.004933 -0.896096
2010-09-02 04:49:49 51°16.843 2°52.666 20.3014 0.333307 2.004933 -0.896096
2010-09-02 04:49:53 51°16.857 2°52.659 20.319 0.333307 2.005001 -0.861272
2010-09-02 04:49:58 51°16.874 2°52.65 20.3192 0.333203 2.004302 -0.826448
2010-09-02 04:50:03 51°16.892 2°52.641 20.3106 0.333307 2.005035 -0.861272
2010-09-02 04:50:08 51°16.909 2°52.634 20.3067 0.333307 2.005035 -0.861272
2010-09-02 04:50:13 51°16.926 2°52.625 20.3185 0.333307 2.005138 -0.861272
2010-09-02 04:50:18 51°16.944 2°52.617 20.3239 0.333307 2.005138 -0.861272
2010-09-02 04:50:24 51°16.965 2°52.608 20.3161 0.333203 2.004371 -0.861272
2010-09-02 04:50:29 51°16.982 2°52.6 20.323 0.333307 2.005172 -0.861272
2010-09-02 04:50:33 51°16.996 2°52.594 20.326 0.333203 2.004507 -0.861272
2010-09-02 04:50:38 51°17.014 2°52.586 20.3289 0.333307 2.005206 -0.861272
2010-09-02 04:50:43 51°17.031 2°52.578 20.3296 0.333203 2.004541 -0.896096
2010-09-02 04:50:49 51°17.052 2°52.569 20.3061 0.333307 2.005274 -0.861272
2010-09-02 04:50:53 51°17.066 2°52.562 20.3213 0.333307 2.005274 -0.861272
2010-09-02 04:50:58 51°17.083 2°52.554 20.3227 0.333203 2.004609 -0.861272
2010-09-02 04:51:03 51°17.1 2°52.546 20.3279 0.333307 2.005343 -0.826448
2010-09-02 04:51:09 51°17.121 2°52.537 20.3087 0.333203 2.004746 -0.826448
2010-09-02 04:51:13 51°17.135 2°52.531 20.3235 0.333307 2.005411 -0.861272
2010-09-02 04:51:17 51°17.149 2°52.524 20.3209 0.333203 2.004814 -0.861272
2010-09-02 04:51:23 51°17.17 2°52.515 20.3205 0.333203 2.004814 -0.861272
2010-09-02 04:51:28 51°17.188 2°52.506 20.3293 0.333203 2.004814 -0.826448
2010-09-02 04:51:33 51°17.205 2°52.498 20.3118 0.333307 2.005547 -0.861272
2010-09-02 04:51:38 51°17.223 2°52.49 20.3278 0.333099 2.004183 -0.861272
2010-09-02 04:51:43 51°17.24 2°52.482 20.325 0.333203 2.004951 -0.861272
2010-09-02 04:51:48 51°17.258 2°52.474 20.3085 0.333203 2.004951 -0.861272
2010-09-02 04:51:53 51°17.275 2°52.466 20.3334 0.333203 2.004951 -0.826448
2010-09-02 04:51:58 51°17.293 2°52.458 20.3212 0.333099 2.004286 -0.861272
2010-09-02 04:52:04 51°17.314 2°52.448 20.3223 0.333203 2.005053 -0.826448
2010-09-02 04:52:08 51°17.328 2°52.442 20.329 0.333203 2.005053 -0.826448
2010-09-02 04:52:13 51°17.346 2°52.434 20.3223 0.333203 2.005087 -0.826448
2010-09-02 04:52:18 51°17.364 2°52.426 20.3303 0.333203 2.005122 -0.861272
2010-09-02 04:52:23 51°17.381 2°52.417 20.3062 0.333203 2.005122 -0.861272
2010-09-02 04:52:29 51°17.402 2°52.408 20.3247 0.333203 2.005156 -0.861272
2010-09-02 04:52:33 51°17.416 2°52.401 20.3258 0.333203 2.00519 -0.861272
2010-09-02 04:52:38 51°17.434 2°52.395 20.3167 0.333099 2.004457 -0.826448
2010-09-02 04:52:43 51°17.452 2°52.387 20.319 0.333203 2.005258 -0.861272
2010-09-02 04:52:49 51°17.473 2°52.38 20.3242 0.333203 2.00519 -0.826448
2010-09-02 04:52:53 51°17.488 2°52.376 20.3209 0.333203 2.00519 -0.826448
2010-09-02 04:52:58 51°17.506 2°52.37 20.3323 0.333203 2.00519 -0.861272
2010-09-02 04:53:03 51°17.524 2°52.366 20.3177 0.333203 2.005258 -0.826448
2010-09-02 04:53:09 51°17.546 2°52.361 20.3315 0.333099 2.004627 -0.861272
2010-09-02 04:53:13 51°17.561 2°52.358 20.3229 0.333099 2.004661 -0.826448
2010-09-02 04:53:18 51°17.579 2°52.353 20.3237 0.333099 2.004661 -0.826448
2010-09-02 04:53:23 51°17.597 2°52.35 20.3243 0.333203 2.005395 -0.861272
2010-09-02 04:53:28 51°17.616 2°52.347 20.3185 0.332995 2.004065 -0.826448
2010-09-02 04:53:33 51°17.634 2°52.345 20.3285 0.333203 2.005497 -0.861272
2010-09-02 04:53:38 51°17.653 2°52.344 20.311 0.333099 2.00473 -0.826448
2010-09-02 04:53:43 51°17.671 2°52.343 20.3326 0.333099 2.004764 -0.826448
2010-09-02 04:53:49 51°17.693 2°52.343 20.3337 0.333099 2.004764 -0.826448
2010-09-02 04:53:53 51°17.708 2°52.344 20.328 0.332995 2.004133 -0.826448
2010-09-02 04:53:58 51°17.727 2°52.345 20.331 0.333203 2.005566 -0.826448
2010-09-02 04:54:03 51°17.745 2°52.346 20.3354 0.333099 2.004935 -0.826448
2010-09-02 04:54:08 51°17.764 2°52.348 20.3282 0.333099 2.004969 -0.826448
2010-09-02 04:54:13 51°17.783 2°52.35 20.336 0.333099 2.005003 -0.826448
2010-09-02 04:54:18 51°17.802 2°52.352 20.3203 0.333099 2.005071 -0.861272
2010-09-02 04:54:23 51°17.82 2°52.354 20.324 0.333099 2.005071 -0.861272
2010-09-02 04:54:29 51°17.842 2°52.359 20.3279 0.333099 2.005037 -0.826448
2010-09-02 04:54:33 51°17.857 2°52.362 20.3327 0.333099 2.005037 -0.861272
2010-09-02 04:54:38 51°17.875 2°52.367 20.3239 0.333099 2.005037 -0.826448
2010-09-02 04:54:43 51°17.894 2°52.372 20.3342 0.333099 2.005071 -0.826448
2010-09-02 04:54:49 51°17.916 2°52.381 20.3243 0.332995 2.00444 -0.861272
2010-09-02 04:54:53 51°17.931 2°52.385 20.3232 0.332995 2.00444 -0.861272
2010-09-02 04:54:58 51°17.949 2°52.395 20.3481 0.333203 2.005873 -0.861272
2010-09-02 04:55:03 51°17.966 2°52.403 20.3202 0.332995 2.004577 -0.861272
2010-09-02 04:55:09 51°17.987 2°52.416 20.3354 0.333099 2.005276 -0.826448
2010-09-02 04:55:13 51°18.001 2°52.423 20.3302 0.332995 2.004782 -0.826448
2010-09-02 04:55:17 51°18.014 2°52.432 20.3487 0.332995 2.004577 -0.861272
2010-09-02 04:55:23 51°18.035 2°52.447 20.318 0.332995 2.004577 -0.861272
2010-09-02 04:55:28 51°18.053 2°52.46 20.3605 0.332995 2.004748 -0.861272
2010-09-02 04:55:33 51°18.069 2°52.473 20.3306 0.332995 2.004645 -0.861272
2010-09-02 04:55:38 51°18.086 2°52.486 20.3538 0.332995 2.004714 -0.826448
2010-09-02 04:55:43 51°18.103 2°52.499 20.3377 0.332995 2.004782 -0.826448
2010-09-02 04:55:48 51°18.119 2°52.513 20.3351 0.332995 2.004782 -0.826448
2010-09-02 04:55:53 51°18.136 2°52.528 20.3161 0.332995 2.004782 -0.826448
2010-09-02 04:55:58 51°18.152 2°52.542 20.3445 0.33289 2.004253 -0.826448
2010-09-02 04:56:04 51°18.171 2°52.562 20.3425 0.333099 2.005481 -0.861272
2010-09-02 04:56:08 51°18.183 2°52.575 20.3433 0.33289 2.004253 -0.826448
2010-09-02 04:56:13 51°18.198 2°52.594 20.3462 0.332995 2.004884 -0.826448
2010-09-02 04:56:18 51°18.213 2°52.611 20.3452 0.332995 2.004953 -0.861272
2010-09-02 04:56:23 51°18.227 2°52.631 20.332 0.332995 2.004953 -0.861272
2010-09-02 04:56:29 51°18.244 2°52.653 20.3546 0.33289 2.004356 -0.826448
2010-09-02 04:56:33 51°18.256 2°52.669 20.3485 0.332995 2.005021 -0.826448
2010-09-02 04:56:38 51°18.27 2°52.689 20.3597 0.332995 2.005124 -0.861272
2010-09-02 04:56:43 51°18.284 2°52.709 20.3582 0.33289 2.004492 -0.826448
2010-09-02 04:56:48 51°18.297 2°52.729 20.364 0.33289 2.004492 -0.826448
2010-09-02 04:56:53 51°18.312 2°52.749 20.3667 0.332995 2.005089 -0.861272
2010-09-02 04:56:58 51°18.326 2°52.769 20.3498 0.33289 2.004492 -0.861272
2010-09-02 04:57:03 51°18.34 2°52.788 20.3726 0.33289 2.004561 -0.791624
2010-09-02 04:57:09 51°18.357 2°52.81 20.3517 0.33289 2.004629 -0.861272
2010-09-02 04:57:13 51°18.369 2°52.825 20.3472 0.33289 2.004629 -0.826448
2010-09-02 04:57:18 51°18.383 2°52.844 20.3563 0.33289 2.004629 -0.826448
2010-09-02 04:57:23 51°18.398 2°52.862 20.368 0.33289 2.004663 -0.861272
2010-09-02 04:57:29 51°18.416 2°52.884 20.3555 0.33289 2.004732 -0.826448
2010-09-02 04:57:33 51°18.428 2°52.899 20.358 0.33289 2.004732 -0.861272
2010-09-02 04:57:38 51°18.443 2°52.917 20.361 0.33289 2.004732 -0.861272
2010-09-02 04:57:43 51°18.458 2°52.935 20.367 0.332786 2.004134 -0.861272
2010-09-02 04:57:48 51°18.472 2°52.953 20.3593 0.332786 2.004134 -0.861272
2010-09-02 04:57:53 51°18.487 2°52.971 20.3608 0.332786 2.004066 -0.826448
2010-09-02 04:57:58 51°18.502 2°52.989 20.357 0.332786 2.004134 -0.896096
2010-09-02 04:58:03 51°18.517 2°53.007 20.3596 0.332786 2.004134 -0.826448
2010-09-02 04:58:08 51°18.532 2°53.025 20.3643 0.332786 2.004169 -0.861272
2010-09-02 04:58:13 51°18.546 2°53.042 20.3735 0.332786 2.004203 -0.826448
2010-09-02 04:58:18 51°18.561 2°53.06 20.3452 0.332786 2.004169 -0.861272
2010-09-02 04:58:23 51°18.576 2°53.078 20.3472 0.332786 2.004169 -0.861272
2010-09-02 04:58:29 51°18.594 2°53.099 20.3671 0.332786 2.004237 -0.826448
2010-09-02 04:58:33 51°18.606 2°53.113 20.3638 0.332786 2.004271 -0.861272
2010-09-02 04:58:38 51°18.621 2°53.131 20.3604 0.332786 2.004305 -0.826448
2010-09-02 04:58:43 51°18.636 2°53.148 20.3645 0.332786 2.004339 -0.861272
2010-09-02 04:58:48 51°18.651 2°53.166 20.363 0.332786 2.004339 -0.861272
2010-09-02 04:58:53 51°18.666 2°53.184 20.3614 0.332786 2.004408 -0.826448
2010-09-02 04:58:58 51°18.681 2°53.201 20.3637 0.332682 2.003776 -0.826448
2010-09-02 04:59:03 51°18.696 2°53.219 20.3681 0.332786 2.004408 -0.826448
2010-09-02 04:59:09 51°18.714 2°53.239 20.3683 0.332786 2.004476 -0.826448
2010-09-02 04:59:13 51°18.726 2°53.254 20.3657 0.332682 2.003742 -0.826448
2010-09-02 04:59:18 51°18.741 2°53.271 20.3739 0.332682 2.003742 -0.826448
2010-09-02 04:59:23 51°18.755 2°53.29 20.3654 0.332786 2.00451 -0.861272
2010-09-02 04:59:29 51°18.774 2°53.312 20.3696 0.332682 2.003845 -0.826448
2010-09-02 04:59:33 51°18.785 2°53.327 20.3804 0.332682 2.003879 -0.826448
2010-09-02 04:59:38 51°18.8 2°53.345 20.3802 0.332682 2.003947 -0.826448
2010-09-02 04:59:43 51°18.815 2°53.363 20.3725 0.332682 2.003981 -0.861272
2010-09-02 04:59:49 51°18.832 2°53.385 20.3676 0.332682 2.00405 -0.826448
2010-09-02 04:59:53 51°18.844 2°53.4 20.3804 0.332682 2.00405 -0.826448
2010-09-02 04:59:58 51°18.859 2°53.418 20.3691 0.332682 2.003981 -0.861272
2010-09-02 05:00:03 51°18.873 2°53.436 20.3785 0.332786 2.00475 -0.826448
2010-09-02 05:00:09 51°18.891 2°53.458 20.3773 0.332682 2.00405 -0.826448
2010-09-02 05:00:13 51°18.903 2°53.472 20.3768 0.332682 2.004118 -0.861272
2010-09-02 05:00:18 51°18.918 2°53.49 20.3632 0.332682 2.004118 -0.861272
2010-09-02 05:00:23 51°18.933 2°53.509 20.3833 0.332682 2.004152 -0.861272
2010-09-02 05:00:29 51°18.951 2°53.53 20.3803 0.332577 2.003487 -0.861272
2010-09-02 05:00:33 51°18.962 2°53.545 20.3737 0.332682 2.004221 -0.826448
2010-09-02 05:00:38 51°18.977 2°53.564 20.3788 0.332577 2.003589 -0.861272
2010-09-02 05:00:43 51°18.992 2°53.582 20.3709 0.332682 2.004323 -0.861272
2010-09-02 05:00:48 51°19.006 2°53.6 20.3792 0.332682 2.004323 -0.861272
2010-09-02 05:00:53 51°19.021 2°53.618 20.373 0.332682 2.004358 -0.861272
2010-09-02 05:00:58 51°19.036 2°53.636 20.3852 0.332577 2.003692 -0.826448
2010-09-02 05:01:03 51°19.051 2°53.654 20.3782 0.332682 2.004426 -0.861272
2010-09-02 05:01:09 51°19.069 2°53.676 20.3857 0.332473 2.003094 -0.826448
2010-09-02 05:01:13 51°19.081 2°53.69 20.3828 0.332577 2.003794 -0.861272
2010-09-02 05:01:18 51°19.096 2°53.709 20.383 0.332577 2.003794 -0.861272
2010-09-02 05:01:23 51°19.111 2°53.727 20.3683 0.332577 2.003794 -0.826448
2010-09-02 05:01:29 51°19.128 2°53.748 20.39 0.332577 2.003897 -0.826448
2010-09-02 05:01:33 51°19.14 2°53.763 20.379 0.332577 2.003931 -0.861272
2010-09-02 05:01:38 51°19.155 2°53.781 20.3809 0.332473 2.003299 -0.861272
2010-09-02 05:01:43 51°19.17 2°53.799 20.3832 0.332577 2.003999 -0.826448
2010-09-02 05:01:49 51°19.188 2°53.82 20.386 0.332473 2.003436 -0.826448
2010-09-02 05:01:53 51°19.2 2°53.835 20.3767 0.332473 2.003436 -0.826448
2010-09-02 05:01:57 51°19.212 2°53.849 20.3802 0.332578 2.004068 -0.861272
2010-09-02 05:02:03 51°19.23 2°53.871 20.3885 0.332473 2.003436 -0.861272
2010-09-02 05:02:08 51°19.245 2°53.888 20.3781 0.332578 2.004136 -0.861272
2010-09-02 05:02:13 51°19.26 2°53.907 20.3807 0.332473 2.003505 -0.861272
2010-09-02 05:02:18 51°19.275 2°53.925 20.3888 0.332473 2.003505 -0.861272
2010-09-02 05:02:23 51°19.289 2°53.943 20.3901 0.332473 2.003505 -0.861272
2010-09-02 05:02:28 51°19.304 2°53.961 20.3857 0.332473 2.003505 -0.861272
2010-09-02 05:02:33 51°19.319 2°53.979 20.3925 0.332473 2.003573 -0.791624
2010-09-02 05:02:38 51°19.334 2°53.997 20.3971 0.332578 2.004341 -0.861272
2010-09-02 05:02:44 51°19.351 2°54.019 20.3804 0.332369 2.002975 -0.826448
2010-09-02 05:02:48 51°19.363 2°54.033 20.3797 0.332369 2.002975 -0.826448
2010-09-02 05:02:53 51°19.378 2°54.051 20.3917 0.332473 2.00371 -0.861272
2010-09-02 05:02:58 51°19.393 2°54.069 20.3958 0.332265 2.002378 -0.826448
2010-09-02 05:03:03 51°19.408 2°54.086 20.393 0.332473 2.003778 -0.826448
2010-09-02 05:03:09 51°19.426 2°54.108 20.3935 0.332369 2.003146 -0.861272
2010-09-02 05:03:13 51°19.437 2°54.122 20.3891 0.332369 2.003146 -0.826448
2010-09-02 05:03:18 51°19.452 2°54.141 20.3967 0.332369 2.003249 -0.861272
2010-09-02 05:03:23 51°19.467 2°54.159 20.3929 0.332369 2.003249 -0.861272
2010-09-02 05:03:28 51°19.482 2°54.177 20.3991 0.332369 2.00318 -0.861272
2010-09-02 05:03:33 51°19.496 2°54.195 20.4039 0.332369 2.003249 -0.861272
2010-09-02 05:03:38 51°19.511 2°54.214 20.3883 0.332369 2.003317 -0.826448
2010-09-02 05:03:43 51°19.526 2°54.231 20.4058 0.332369 2.003386 -0.861272
2010-09-02 05:03:49 51°19.544 2°54.253 20.3972 0.332369 2.003386 -0.861272
2010-09-02 05:03:53 51°19.556 2°54.267 20.4091 0.332265 2.00272 -0.826448
2010-09-02 05:03:58 51°19.57 2°54.286 20.3926 0.332369 2.00342 -0.861272
2010-09-02 05:04:03 51°19.585 2°54.304 20.4082 0.332265 2.002788 -0.861272
2010-09-02 05:04:09 51°19.602 2°54.325 20.4075 0.332369 2.003488 -0.861272
2010-09-02 05:04:13 51°19.614 2°54.34 20.397 0.332265 2.002822 -0.861272
2010-09-02 05:04:18 51°19.629 2°54.358 20.4006 0.332265 2.002822 -0.861272
2010-09-02 05:04:23 51°19.644 2°54.376 20.404 0.332369 2.003522 -0.826448
2010-09-02 05:04:29 51°19.661 2°54.398 20.4022 0.33216 2.002224 -0.861272
2010-09-02 05:04:33 51°19.673 2°54.412 20.3964 0.332265 2.002959 -0.826448
2010-09-02 05:04:38 51°19.688 2°54.431 20.4102 0.332265 2.002993 -0.861272
2010-09-02 05:04:43 51°19.703 2°54.449 20.4118 0.33216 2.002327 -0.826448
2010-09-02 05:04:48 51°19.717 2°54.467 20.4039 0.33216 2.002327 -0.826448
2010-09-02 05:04:53 51°19.732 2°54.485 20.4062 0.332265 2.003027 -0.861272
2010-09-02 05:04:58 51°19.746 2°54.503 20.4128 0.33216 2.002395 -0.826448
2010-09-02 05:05:03 51°19.761 2°54.521 20.4085 0.33216 2.00243 -0.861272
2010-09-02 05:05:09 51°19.779 2°54.543 20.4044 0.332265 2.003164 -0.861272
2010-09-02 05:05:13 51°19.791 2°54.557 20.4062 0.332265 2.003233 -0.861272
2010-09-02 05:05:18 51°19.806 2°54.575 20.4115 0.33216 2.002532 -0.861272
2010-09-02 05:05:23 51°19.82 2°54.593 20.3946 0.33216 2.002532 -0.861272
2010-09-02 05:05:28 51°19.835 2°54.611 20.4145 0.33216 2.002601 -0.826448
2010-09-02 05:05:33 51°19.85 2°54.63 20.4085 0.33216 2.002566 -0.861272
2010-09-02 05:05:38 51°19.865 2°54.648 20.4187 0.33216 2.002635 -0.861272
2010-09-02 05:05:43 51°19.879 2°54.666 20.4056 0.33216 2.002669 -0.861272
2010-09-02 05:05:49 51°19.897 2°54.688 20.4157 0.33216 2.002703 -0.826448
2010-09-02 05:05:53 51°19.909 2°54.702 20.4123 0.33216 2.002703 -0.826448
2010-09-02 05:05:58 51°19.923 2°54.72 20.4192 0.33216 2.002703 -0.861272
2010-09-02 05:06:03 51°19.938 2°54.739 20.4135 0.33216 2.002772 -0.861272
2010-09-02 05:06:09 51°19.956 2°54.76 20.408 0.332056 2.002105 -0.826448
2010-09-02 05:06:13 51°19.968 2°54.775 20.4117 0.33216 2.00284 -0.896096
2010-09-02 05:06:18 51°19.982 2°54.793 20.4222 0.33216 2.00284 -0.896096
2010-09-02 05:06:23 51°19.997 2°54.811 20.4178 0.332056 2.002174 -0.861272
2010-09-02 05:06:29 51°20.014 2°54.833 20.4097 0.33216 2.002874 -0.861272
2010-09-02 05:06:33 51°20.026 2°54.848 20.4214 0.332056 2.002174 -0.826448
2010-09-02 05:06:37 51°20.038 2°54.862 20.4246 0.33216 2.002908 -0.861272
2010-09-02 05:06:43 51°20.056 2°54.884 20.4153 0.331952 2.001576 -0.861272
2010-09-02 05:06:48 51°20.07 2°54.902 20.4207 0.33216 2.002943 -0.861272
2010-09-02 05:06:53 51°20.085 2°54.92 20.4131 0.33216 2.002943 -0.861272
2010-09-02 05:06:58 51°20.1 2°54.938 20.4279 0.331952 2.001576 -0.861272
2010-09-02 05:07:03 51°20.115 2°54.956 20.4282 0.332056 2.00231 -0.861272
2010-09-02 05:07:08 51°20.129 2°54.974 20.4213 0.331952 2.001644 -0.861272
2010-09-02 05:07:13 51°20.144 2°54.992 20.416 0.331952 2.001678 -0.826448
2010-09-02 05:07:18 51°20.159 2°55.01 20.4253 0.332056 2.002345 -0.861272
2010-09-02 05:07:24 51°20.176 2°55.032 20.4258 0.332056 2.002345 -0.861272
2010-09-02 05:07:28 51°20.188 2°55.046 20.4283 0.331952 2.001678 -0.826448
2010-09-02 05:07:33 51°20.203 2°55.064 20.4236 0.331952 2.001747 -0.861272
2010-09-02 05:07:37 51°20.215 2°55.079 20.4332 0.331952 2.001712 -0.861272
2010-09-02 05:07:43 51°20.233 2°55.101 20.4326 0.331952 2.001712 -0.861272
2010-09-02 05:07:48 51°20.247 2°55.119 20.4215 0.331952 2.001747 -0.861272
2010-09-02 05:07:53 51°20.262 2°55.137 20.4296 0.331952 2.001747 -0.861272
2010-09-02 05:07:58 51°20.276 2°55.155 20.4236 0.331952 2.001747 -0.826448
2010-09-02 05:08:03 51°20.291 2°55.173 20.4315 0.331952 2.001781 -0.826448
2010-09-02 05:08:09 51°20.309 2°55.195 20.4261 0.331952 2.001781 -0.861272
2010-09-02 05:08:13 51°20.32 2°55.21 20.4325 0.331952 2.001815 -0.861272
2010-09-02 05:08:18 51°20.335 2°55.228 20.4377 0.331952 2.001815 -0.861272
2010-09-02 05:08:23 51°20.35 2°55.246 20.4366 0.331847 2.001114 -0.826448
2010-09-02 05:08:29 51°20.368 2°55.267 20.434 0.331847 2.001217 -0.861272
2010-09-02 05:08:33 51°20.38 2°55.282 20.4324 0.331847 2.001217 -0.861272
2010-09-02 05:08:38 51°20.395 2°55.3 20.4386 0.331847 2.001217 -0.826448
2010-09-02 05:08:43 51°20.41 2°55.318 20.4422 0.331847 2.001217 -0.826448
2010-09-02 05:08:49 51°20.428 2°55.34 20.4344 0.331952 2.001883 -0.826448
2010-09-02 05:08:53 51°20.439 2°55.354 20.4342 0.331952 2.001883 -0.826448
2010-09-02 05:08:58 51°20.454 2°55.372 20.4417 0.331847 2.001285 -0.826448
2010-09-02 05:09:03 51°20.469 2°55.391 20.4381 0.331847 2.00132 -0.861272
2010-09-02 05:09:09 51°20.487 2°55.412 20.4384 0.331847 2.00132 -0.861272
2010-09-02 05:09:13 51°20.499 2°55.427 20.4441 0.331847 2.00132 -0.826448
2010-09-02 05:09:18 51°20.514 2°55.445 20.4411 0.331847 2.00132 -0.826448
2010-09-02 05:09:23 51°20.529 2°55.463 20.4395 0.331847 2.00132 -0.826448
2010-09-02 05:09:29 51°20.546 2°55.485 20.4327 0.331847 2.001354 -0.826448
2010-09-02 05:09:33 51°20.558 2°55.5 20.4422 0.331743 2.000756 -0.826448
2010-09-02 05:09:38 51°20.573 2°55.518 20.4494 0.331847 2.001422 -0.861272
2010-09-02 05:09:43 51°20.588 2°55.536 20.4333 0.331743 2.000756 -0.826448
2010-09-02 05:09:48 51°20.602 2°55.554 20.4478 0.331743 2.000756 -0.826448
2010-09-02 05:09:53 51°20.617 2°55.572 20.4442 0.331847 2.001422 -0.861272
2010-09-02 05:09:58 51°20.632 2°55.59 20.4538 0.331847 2.001491 -0.826448
2010-09-02 05:10:04 51°20.65 2°55.612 20.4344 0.331743 2.000824 -0.861272
2010-09-02 05:10:08 51°20.662 2°55.627 20.4512 0.331743 2.00079 -0.826448
2010-09-02 05:10:13 51°20.677 2°55.645 20.4521 0.331847 2.001559 -0.826448
2010-09-02 05:10:18 51°20.691 2°55.663 20.451 0.331847 2.001559 -0.826448
2010-09-02 05:10:23 51°20.706 2°55.681 20.4476 0.331743 2.000858 -0.826448
2010-09-02 05:10:28 51°20.721 2°55.699 20.4507 0.331743 2.000892 -0.826448
2010-09-02 05:10:33 51°20.736 2°55.717 20.4541 0.331743 2.000892 -0.861272
2010-09-02 05:10:38 51°20.751 2°55.735 20.4539 0.331743 2.000927 -0.861272
2010-09-02 05:10:44 51°20.769 2°55.757 20.4377 0.331743 2.000927 -0.861272
2010-09-02 05:10:49 51°20.783 2°55.776 20.4589 0.331743 2.000995 -0.861272
2010-09-02 05:10:53 51°20.795 2°55.79 20.4434 0.331743 2.000995 -0.861272
2010-09-02 05:10:57 51°20.807 2°55.804 20.4472 0.331743 2.000961 -0.896096
2010-09-02 05:11:03 51°20.825 2°55.826 20.4528 0.331639 2.000294 -0.861272
2010-09-02 05:11:08 51°20.839 2°55.844 20.4525 0.331743 2.001063 -0.826448
2010-09-02 05:11:13 51°20.854 2°55.862 20.4615 0.331743 2.001063 -0.861272
2010-09-02 05:11:18 51°20.869 2°55.881 20.4583 0.331743 2.001063 -0.861272
2010-09-02 05:11:23 51°20.884 2°55.898 20.4557 0.331743 2.001063 -0.826448
2010-09-02 05:11:29 51°20.902 2°55.92 20.4541 0.331743 2.001063 -0.826448
2010-09-02 05:11:33 51°20.914 2°55.935 20.4618 0.331639 2.000431 -0.861272
2010-09-02 05:11:38 51°20.928 2°55.953 20.4575 0.331639 2.000465 -0.861272
2010-09-02 05:11:43 51°20.943 2°55.971 20.4642 0.331743 2.001166 -0.861272
2010-09-02 05:11:48 51°20.958 2°55.99 20.4616 0.331743 2.001166 -0.861272
2010-09-02 05:11:53 51°20.973 2°56.008 20.4581 0.331639 2.000534 -0.861272
2010-09-02 05:11:57 51°20.985 2°56.023 20.4562 0.331743 2.0012 -0.861272
2010-09-02 05:12:03 51°21.003 2°56.044 20.4601 0.331639 2.000568 -0.861272
2010-09-02 05:12:08 51°21.017 2°56.063 20.4583 0.331743 2.001234 -0.826448
2010-09-02 05:12:13 51°21.032 2°56.081 20.4666 0.331639 2.000636 -0.861272
2010-09-02 05:12:18 51°21.047 2°56.099 20.4534 0.331639 2.000636 -0.861272
2010-09-02 05:12:23 51°21.062 2°56.117 20.4689 0.331639 2.000636 -0.861272
2010-09-02 05:12:29 51°21.08 2°56.139 20.4604 0.331639 2.000602 -0.861272
2010-09-02 05:12:33 51°21.092 2°56.154 20.4686 0.331639 2.000636 -0.826448
2010-09-02 05:12:38 51°21.106 2°56.172 20.473 0.331639 2.000705 -0.861272
2010-09-02 05:12:44 51°21.125 2°56.194 20.4737 0.331639 2.000705 -0.826448
2010-09-02 05:12:48 51°21.136 2°56.208 20.4751 0.331639 2.000705 -0.861272
2010-09-02 05:12:53 51°21.151 2°56.226 20.4707 0.331639 2.000705 -0.861272
2010-09-02 05:12:58 51°21.166 2°56.245 20.4721 0.331639 2.000773 -0.791624
2010-09-02 05:13:04 51°21.183 2°56.267 20.468 0.331535 2.000106 -0.861272
2010-09-02 05:13:09 51°21.198 2°56.285 20.4772 0.331639 2.000807 -0.791624
2010-09-02 05:13:13 51°21.21 2°56.3 20.4769 0.331639 2.000807 -0.861272
2010-09-02 05:13:18 51°21.225 2°56.318 20.4687 0.331639 2.000807 -0.861272
2010-09-02 05:13:23 51°21.24 2°56.336 20.4786 0.331639 2.000807 -0.861272
2010-09-02 05:13:29 51°21.258 2°56.358 20.4701 0.331535 2.000175 -0.861272
2010-09-02 05:13:33 51°21.27 2°56.372 20.4673 0.331639 2.000876 -0.861272
2010-09-02 05:13:38 51°21.285 2°56.39 20.479 0.331639 2.00091 -0.826448
2010-09-02 05:13:43 51°21.3 2°56.409 20.4764 0.331535 2.000209 -0.826448
2010-09-02 05:13:48 51°21.315 2°56.427 20.4705 0.331535 2.000209 -0.826448
2010-09-02 05:13:53 51°21.33 2°56.445 20.4702 0.331535 2.000311 -0.826448
2010-09-02 05:13:58 51°21.344 2°56.463 20.4877 0.331535 2.000277 -0.826448
2010-09-02 05:14:03 51°21.359 2°56.482 20.4687 0.331535 2.000346 -0.861272
2010-09-02 05:14:08 51°21.374 2°56.499 20.4826 0.331535 2.00038 -0.861272
2010-09-02 05:14:13 51°21.389 2°56.518 20.4743 0.331535 2.00038 -0.861272
2010-09-02 05:14:18 51°21.404 2°56.537 20.4863 0.33143 1.999679 -0.861272
2010-09-02 05:14:23 51°21.419 2°56.554 20.4795 0.33143 1.999679 -0.861272
2010-09-02 05:14:29 51°21.437 2°56.576 20.4769 0.331535 2.000414 -0.861272
2010-09-02 05:14:33 51°21.448 2°56.59 20.4877 0.331535 2.000414 -0.861272
2010-09-02 05:14:38 51°21.464 2°56.609 20.4803 0.331535 2.000448 -0.826448
2010-09-02 05:14:43 51°21.478 2°56.627 20.4833 0.331535 2.000482 -0.861272
2010-09-02 05:14:48 51°21.493 2°56.646 20.4898 0.33143 1.999816 -0.826448
2010-09-02 05:14:53 51°21.508 2°56.664 20.4873 0.33143 1.999816 -0.826448
2010-09-02 05:14:58 51°21.523 2°56.682 20.4867 0.331535 2.000551 -0.861272
2010-09-02 05:15:03 51°21.538 2°56.7 20.4784 0.33143 1.999918 -0.861272
2010-09-02 05:15:09 51°21.556 2°56.722 20.4919 0.33143 1.999952 -0.826448
2010-09-02 05:15:13 51°21.568 2°56.737 20.4902 0.33143 1.999987 -0.861272
2010-09-02 05:15:18 51°21.583 2°56.755 20.4927 0.33143 1.999987 -0.861272
2010-09-02 05:15:23 51°21.598 2°56.774 20.4887 0.331535 2.000688 -0.861272
2010-09-02 05:15:29 51°21.616 2°56.795 20.4893 0.33143 2.000055 -0.826448
2010-09-02 05:15:33 51°21.628 2°56.81 20.485 0.33143 2.000089 -0.826448
2010-09-02 05:15:38 51°21.643 2°56.828 20.5005 0.33143 2.000055 -0.861272
2010-09-02 05:15:43 51°21.658 2°56.846 20.502 0.33143 2.000089 -0.826448
2010-09-02 05:15:48 51°21.673 2°56.865 20.4894 0.33143 2.000089 -0.826448
2010-09-02 05:15:53 51°21.688 2°56.883 20.4942 0.33143 2.000158 -0.861272
2010-09-02 05:15:58 51°21.704 2°56.901 20.4887 0.33143 2.000192 -0.861272
2010-09-02 05:16:03 51°21.719 2°56.919 20.5038 0.33143 2.000226 -0.826448
2010-09-02 05:16:08 51°21.733 2°56.938 20.4946 0.33143 2.00026 -0.861272
2010-09-02 05:16:13 51°21.748 2°56.956 20.4941 0.33143 2.00026 -0.861272
2010-09-02 05:16:18 51°21.763 2°56.974 20.4944 0.33143 2.000363 -0.861272
2010-09-02 05:16:23 51°21.779 2°56.993 20.5049 0.33143 2.000363 -0.861272
2010-09-02 05:16:29 51°21.797 2°57.014 20.4982 0.331326 1.999662 -0.826448
2010-09-02 05:16:33 51°21.809 2°57.029 20.4986 0.33143 2.000397 -0.826448
2010-09-02 05:16:37 51°21.821 2°57.044 20.493 0.33143 2.000431 -0.861272
2010-09-02 05:16:43 51°21.839 2°57.066 20.5009 0.33143 2.0005 -0.826448
2010-09-02 05:16:48 51°21.854 2°57.084 20.5081 0.33143 2.0005 -0.826448
2010-09-02 05:16:53 51°21.869 2°57.103 20.4983 0.331326 1.999833 -0.861272
2010-09-02 05:16:58 51°21.884 2°57.121 20.5091 0.331326 1.999867 -0.826448
2010-09-02 05:17:03 51°21.899 2°57.139 20.5099 0.33143 2.000534 -0.896096
2010-09-02 05:17:09 51°21.918 2°57.161 20.5009 0.331326 1.99997 -0.826448
2010-09-02 05:17:13 51°21.929 2°57.176 20.5013 0.331326 1.999901 -0.826448
2010-09-02 05:17:18 51°21.944 2°57.194 20.5118 0.331326 1.999901 -0.826448
2010-09-02 05:17:24 51°21.963 2°57.216 20.5079 0.331326 2.000004 -0.861272
2010-09-02 05:17:28 51°21.975 2°57.231 20.5064 0.33143 2.000637 -0.791624
2010-09-02 05:17:33 51°21.99 2°57.249 20.5089 0.33143 2.000705 -0.861272
2010-09-02 05:17:37 51°22.002 2°57.264 20.5182 0.331326 2.000072 -0.861272
2010-09-02 05:17:43 51°22.02 2°57.286 20.5075 0.331326 2.000072 -0.826448
2010-09-02 05:17:48 51°22.035 2°57.304 20.5023 0.33143 2.000808 -0.826448
2010-09-02 05:17:53 51°22.05 2°57.322 20.5021 0.33143 2.000808 -0.826448
2010-09-02 05:17:58 51°22.065 2°57.341 20.5076 0.331326 2.000175 -0.826448
2010-09-02 05:18:03 51°22.08 2°57.359 20.5201 0.331326 2.000141 -0.861272
2010-09-02 05:18:09 51°22.099 2°57.381 20.5149 0.331326 2.000243 -0.826448
2010-09-02 05:18:13 51°22.111 2°57.396 20.5143 0.331326 2.000209 -0.826448
2010-09-02 05:18:18 51°22.126 2°57.414 20.5226 0.331326 2.000312 -0.826448
2010-09-02 05:18:23 51°22.141 2°57.432 20.513 0.331326 2.000312 -0.826448
2010-09-02 05:18:28 51°22.156 2°57.451 20.5161 0.331326 2.000278 -0.861272
2010-09-02 05:18:33 51°22.171 2°57.469 20.5268 0.331326 2.000278 -0.861272
2010-09-02 05:18:38 51°22.186 2°57.488 20.5217 0.331326 2.000346 -0.826448
2010-09-02 05:18:43 51°22.201 2°57.506 20.5227 0.331326 2.00038 -0.861272
2010-09-02 05:18:49 51°22.219 2°57.528 20.5148 0.331326 2.00038 -0.861272
2010-09-02 05:18:53 51°22.231 2°57.542 20.5274 0.331326 2.000414 -0.826448
2010-09-02 05:18:58 51°22.246 2°57.561 20.5265 0.331326 2.000414 -0.861272
2010-09-02 05:19:03 51°22.262 2°57.579 20.5191 0.331326 2.000483 -0.861272
2010-09-02 05:19:08 51°22.276 2°57.597 20.532 0.331326 2.000414 -0.861272
2010-09-02 05:19:13 51°22.292 2°57.616 20.5218 0.331222 1.999816 -0.861272
2010-09-02 05:19:18 51°22.307 2°57.634 20.5251 0.331222 1.999816 -0.861272
2010-09-02 05:19:23 51°22.322 2°57.652 20.5197 0.331326 2.000517 -0.826448
2010-09-02 05:19:29 51°22.34 2°57.675 20.5281 0.331222 1.99985 -0.826448
2010-09-02 05:19:33 51°22.352 2°57.689 20.524 0.331222 1.999884 -0.826448
2010-09-02 05:19:38 51°22.367 2°57.708 20.5309 0.331326 2.00062 -0.861272
2010-09-02 05:19:43 51°22.382 2°57.727 20.5332 0.331222 1.999953 -0.826448
2010-09-02 05:19:49 51°22.4 2°57.749 20.5249 0.331222 1.999987 -0.861272
2010-09-02 05:19:53 51°22.412 2°57.764 20.5351 0.331222 1.999987 -0.861272
2010-09-02 05:19:58 51°22.427 2°57.783 20.5206 0.331222 2.000021 -0.826448
2010-09-02 05:20:03 51°22.442 2°57.801 20.5323 0.331222 2.000021 -0.861272
2010-09-02 05:20:09 51°22.461 2°57.823 20.536 0.331222 2.00009 -0.861272
2010-09-02 05:20:13 51°22.473 2°57.838 20.5396 0.331326 2.000757 -0.826448
2010-09-02 05:20:18 51°22.488 2°57.857 20.5329 0.331222 2.000124 -0.826448
2010-09-02 05:20:23 51°22.503 2°57.875 20.5289 0.331222 2.000124 -0.826448
2010-09-02 05:20:28 51°22.517 2°57.894 20.5312 0.331222 2.000158 -0.826448
2010-09-02 05:20:33 51°22.532 2°57.913 20.5237 0.331222 2.000226 -0.861272
2010-09-02 05:20:38 51°22.547 2°57.933 20.5262 0.331222 2.000124 -0.861272
2010-09-02 05:20:43 51°22.561 2°57.953 20.5422 0.331326 2.000928 -0.861272
2010-09-02 05:20:49 51°22.578 2°57.977 20.5318 0.331326 2.000928 -0.861272
2010-09-02 05:20:53 51°22.589 2°57.993 20.5446 0.331222 2.000226 -0.896096
2010-09-02 05:20:57 51°22.6 2°58.01 20.5275 0.331326 2.000962 -0.861272
2010-09-02 05:21:03 51°22.616 2°58.035 20.5402 0.331222 2.000363 -0.861272
2010-09-02 05:21:08 51°22.63 2°58.057 20.5351 0.331326 2.000962 -0.861272
2010-09-02 05:21:13 51°22.643 2°58.078 20.5301 0.331222 2.000398 -0.826448
2010-09-02 05:21:18 51°22.656 2°58.101 20.5524 0.331326 2.000997 -0.826448
2010-09-02 05:21:23 51°22.668 2°58.123 20.5305 0.331326 2.000997 -0.826448
2010-09-02 05:21:29 51°22.684 2°58.15 20.5524 0.331222 2.000466 -0.826448
2010-09-02 05:21:33 51°22.694 2°58.169 20.5436 0.331222 2.000466 -0.861272
2010-09-02 05:21:38 51°22.707 2°58.19 20.5592 0.331222 2.000569 -0.826448
2010-09-02 05:21:44 51°22.722 2°58.218 20.543 0.331117 1.999833 -0.826448
2010-09-02 05:21:48 51°22.732 2°58.236 20.5497 0.331117 1.999833 -0.826448
2010-09-02 05:21:53 51°22.745 2°58.259 20.5528 0.331326 2.001271 -0.861272
2010-09-02 05:21:58 51°22.758 2°58.282 20.5569 0.331222 2.000603 -0.861272
2010-09-02 05:22:03 51°22.771 2°58.305 20.5509 0.331222 2.000637 -0.861272
2010-09-02 05:22:09 51°22.786 2°58.332 20.5646 0.331222 2.000672 -0.861272
2010-09-02 05:22:13 51°22.796 2°58.351 20.5559 0.331117 1.99997 -0.861272
2010-09-02 05:22:18 51°22.809 2°58.373 20.555 0.331117 1.99997 -0.861272
2010-09-02 05:22:23 51°22.821 2°58.396 20.5612 0.331326 2.001408 -0.896096
2010-09-02 05:22:28 51°22.834 2°58.418 20.5532 0.331117 2.000141 -0.861272
2010-09-02 05:22:33 51°22.847 2°58.441 20.5542 0.331222 2.000843 -0.861272
2010-09-02 05:22:38 51°22.86 2°58.464 20.5341 0.331222 2.000843 -0.861272
2010-09-02 05:22:43 51°22.872 2°58.486 20.5469 0.331222 2.000911 -0.861272
2010-09-02 05:22:48 51°22.884 2°58.51 20.5549 0.331222 2.000911 -0.861272
2010-09-02 05:22:53 51°22.896 2°58.534 20.5602 0.331117 2.000175 -0.861272
2010-09-02 05:22:58 51°22.907 2°58.558 20.5667 0.331222 2.000911 -0.861272
2010-09-02 05:23:03 51°22.919 2°58.581 20.5719 0.331222 2.001014 -0.861272
2010-09-02 05:23:08 51°22.93 2°58.606 20.5687 0.331222 2.00098 -0.861272
2010-09-02 05:23:13 51°22.941 2°58.63 20.5633 0.331222 2.001083 -0.861272
2010-09-02 05:23:18 51°22.952 2°58.655 20.5695 0.331222 2.001117 -0.861272
2010-09-02 05:23:23 51°22.963 2°58.68 20.5633 0.331222 2.001117 -0.861272
2010-09-02 05:23:29 51°22.977 2°58.709 20.5664 0.331222 2.001117 -0.861272
2010-09-02 05:23:33 51°22.985 2°58.729 20.5691 0.331222 2.001186 -0.826448
2010-09-02 05:23:38 51°22.996 2°58.755 20.5667 0.331118 2.000415 -0.861272
2010-09-02 05:23:43 51°23.007 2°58.78 20.5565 0.331222 2.00122 -0.861272
2010-09-02 05:23:48 51°23.017 2°58.805 20.5831 0.331222 2.00122 -0.861272
2010-09-02 05:23:53 51°23.027 2°58.831 20.5713 0.331222 2.00122 -0.861272
2010-09-02 05:23:58 51°23.037 2°58.857 20.5759 0.331222 2.001288 -0.861272
2010-09-02 05:24:03 51°23.048 2°58.882 20.5832 0.331118 2.000621 -0.826448
2010-09-02 05:24:09 51°23.06 2°58.914 20.5744 0.331222 2.001391 -0.861272
2010-09-02 05:24:13 51°23.068 2°58.934 20.5665 0.331118 2.000723 -0.861272
2010-09-02 05:24:18 51°23.078 2°58.96 20.5888 0.331118 2.000723 -0.861272
2010-09-02 05:24:23 51°23.088 2°58.986 20.5781 0.331222 2.00146 -0.861272
2010-09-02 05:24:29 51°23.1 2°59.017 20.5842 0.331222 2.001494 -0.861272
2010-09-02 05:24:33 51°23.108 2°59.037 20.5779 0.331222 2.00146 -0.826448
2010-09-02 05:24:38 51°23.118 2°59.063 20.5852 0.331222 2.001494 -0.861272
2010-09-02 05:24:43 51°23.129 2°59.088 20.5858 0.331222 2.001494 -0.826448
2010-09-02 05:24:49 51°23.142 2°59.119 20.5898 0.331222 2.001494 -0.861272
2010-09-02 05:24:53 51°23.15 2°59.139 20.5833 0.331222 2.001494 -0.861272
2010-09-02 05:24:58 51°23.161 2°59.164 20.5852 0.331222 2.001631 -0.826448
2010-09-02 05:25:03 51°23.172 2°59.189 20.5756 0.331118 2.000929 -0.826448
2010-09-02 05:25:08 51°23.183 2°59.214 20.577 0.331222 2.001597 -0.861272
2010-09-02 05:25:13 51°23.193 2°59.239 20.5847 0.331222 2.001665 -0.861272
2010-09-02 05:25:18 51°23.205 2°59.264 20.5907 0.331222 2.001631 -0.826448
2010-09-02 05:25:23 51°23.215 2°59.289 20.5882 0.331222 2.001631 -0.826448
2010-09-02 05:25:29 51°23.229 2°59.319 20.5815 0.331222 2.001665 -0.826448
2010-09-02 05:25:33 51°23.237 2°59.339 20.5984 0.331118 2.001032 -0.826448
2010-09-02 05:25:38 51°23.248 2°59.364 20.5885 0.331222 2.001768 -0.896096
2010-09-02 05:25:43 51°23.259 2°59.388 20.5949 0.331118 2.001135 -0.861272
2010-09-02 05:25:48 51°23.27 2°59.414 20.5802 0.331118 2.001135 -0.861272
2010-09-02 05:25:53 51°23.28 2°59.438 20.5967 0.331118 2.001101 -0.861272
2010-09-02 05:25:58 51°23.291 2°59.463 20.5993 0.331118 2.001169 -0.861272
2010-09-02 05:26:03 51°23.302 2°59.489 20.5901 0.331222 2.001871 -0.861272
2010-09-02 05:26:09 51°23.315 2°59.518 20.5933 0.331118 2.001203 -0.861272
2010-09-02 05:26:13 51°23.324 2°59.539 20.5845 0.331222 2.001871 -0.861272
2010-09-02 05:26:17 51°23.332 2°59.559 20.6048 0.331222 2.001871 -0.861272
2010-09-02 05:26:24 51°23.348 2°59.594 20.6017 0.331118 2.001238 -0.826448
2010-09-02 05:26:28 51°23.356 2°59.614 20.6052 0.331118 2.001272 -0.861272
2010-09-02 05:26:33 51°23.367 2°59.639 20.6089 0.331222 2.002008 -0.826448
2010-09-02 05:26:38 51°23.378 2°59.664 20.5925 0.331222 2.002043 -0.861272
2010-09-02 05:26:43 51°23.389 2°59.689 20.6026 0.331222 2.002077 -0.861272
2010-09-02 05:26:49 51°23.402 2°59.719 20.6039 0.331222 2.002077 -0.861272
2010-09-02 05:26:53 51°23.411 2°59.739 20.6185 0.331222 2.002077 -0.861272
2010-09-02 05:26:58 51°23.422 2°59.763 20.6403 0.331222 2.002111 -0.861272
2010-09-02 05:27:03 51°23.434 2°59.786 20.5962 0.331222 2.002146 -0.826448
2010-09-02 05:27:08 51°23.447 2°59.808 20.6227 0.331118 2.001581 -0.896096
2010-09-02 05:27:13 51°23.46 2°59.831 20.6086 0.331118 2.001649 -0.861272
2010-09-02 05:27:18 51°23.474 2°59.851 20.6324 0.331118 2.001649 -0.861272
2010-09-02 05:27:23 51°23.488 2°59.871 20.5978 0.331222 2.002317 -0.861272
2010-09-02 05:27:29 51°23.506 2°59.894 20.6218 0.331222 2.00242 -0.861272
2010-09-02 05:27:33 51°23.518 2°59.909 20.6026 0.331118 2.001649 -0.826448
2010-09-02 05:27:38 51°23.534 2°59.926 20.6138 0.331118 2.001752 -0.826448
2010-09-02 05:27:43 51°23.549 2°59.944 20.6104 0.331118 2.001683 -0.861272
2010-09-02 05:27:48 51°23.565 2°59.961 20.6178 0.331118 2.001752 -0.861272
2010-09-02 05:27:53 51°23.581 2°59.978 20.6156 0.331118 2.001752 -0.861272
2010-09-02 05:27:58 51°23.597 2°59.993 20.6155 0.331222 2.002386 -0.861272
2010-09-02 05:28:03 51°23.613 3°0.009 20.619 0.331222 2.002454 -0.861272
2010-09-02 05:28:09 51°23.633 3°0.026 20.6154 0.331118 2.001855 -0.861272
2010-09-02 05:28:13 51°23.646 3°0.038 20.6048 0.331118 2.001786 -0.896096
2010-09-02 05:28:18 51°23.663 3°0.052 20.6066 0.331118 2.001786 -0.896096
2010-09-02 05:28:23 51°23.68 3°0.067 20.6169 0.331222 2.002557 -0.826448
2010-09-02 05:28:28 51°23.697 3°0.081 20.6158 0.331118 2.001821 -0.826448
2010-09-02 05:28:33 51°23.713 3°0.095 20.6156 0.331222 2.002557 -0.826448
2010-09-02 05:28:38 51°23.73 3°0.109 20.606 0.331118 2.001821 -0.861272
2010-09-02 05:28:43 51°23.747 3°0.124 20.6245 0.331222 2.002592 -0.826448
2010-09-02 05:28:49 51°23.767 3°0.141 20.6238 0.331118 2.001924 -0.861272
2010-09-02 05:28:53 51°23.78 3°0.152 20.6229 0.331118 2.001924 -0.861272
2010-09-02 05:28:58 51°23.797 3°0.165 20.6248 0.331222 2.002695 -0.826448
2010-09-02 05:29:03 51°23.814 3°0.18 20.6144 0.331118 2.002095 -0.861272
2010-09-02 05:29:09 51°23.833 3°0.198 20.6136 0.331118 2.002027 -0.826448
2010-09-02 05:29:13 51°23.847 3°0.209 20.6208 0.331222 2.002832 -0.861272
2010-09-02 05:29:18 51°23.864 3°0.223 20.6245 0.331118 2.002095 -0.861272
2010-09-02 05:29:23 51°23.88 3°0.238 20.6123 0.331118 2.002095 -0.861272
2010-09-02 05:29:28 51°23.897 3°0.252 20.6339 0.331118 2.002164 -0.826448
2010-09-02 05:29:33 51°23.913 3°0.267 20.6226 0.331222 2.002832 -0.861272
2010-09-02 05:29:38 51°23.93 3°0.281 20.6262 0.331118 2.002233 -0.861272
2010-09-02 05:29:43 51°23.946 3°0.296 20.6296 0.331222 2.002969 -0.826448
2010-09-02 05:29:48 51°23.963 3°0.31 20.6334 0.331222 2.002969 -0.826448
2010-09-02 05:29:53 51°23.979 3°0.325 20.6364 0.331118 2.00237 -0.861272
2010-09-02 05:29:58 51°23.996 3°0.339 20.6323 0.331118 2.002335 -0.861272
2010-09-02 05:30:03 51°24.013 3°0.355 20.6349 0.331222 2.003038 -0.861272
2010-09-02 05:30:09 51°24.032 3°0.372 20.6259 0.331118 2.002404 -0.861272
2010-09-02 05:30:13 51°24.046 3°0.384 20.637 0.331222 2.003107 -0.861272
2010-09-02 05:30:18 51°24.062 3°0.399 20.6328 0.331118 2.002473 -0.826448
2010-09-02 05:30:23 51°24.079 3°0.413 20.6311 0.331118 2.002473 -0.826448
2010-09-02 05:30:28 51°24.095 3°0.429 20.631 0.331222 2.003107 -0.861272
2010-09-02 05:30:33 51°24.111 3°0.444 20.64 0.331118 2.002507 -0.826448
2010-09-02 05:30:38 51°24.127 3°0.459 20.6379 0.331118 2.002541 -0.826448
2010-09-02 05:30:43 51°24.144 3°0.473 20.6404 0.331118 2.002541 -0.861272
2010-09-02 05:30:49 51°24.163 3°0.491 20.6419 0.331118 2.002576 -0.861272
2010-09-02 05:30:53 51°24.176 3°0.503 20.6377 0.331118 2.002576 -0.861272
2010-09-02 05:30:57 51°24.188 3°0.515 20.6404 0.331118 2.002576 -0.861272
2010-09-02 05:31:03 51°24.208 3°0.533 20.6531 0.331118 2.00261 -0.826448
2010-09-02 05:31:08 51°24.224 3°0.548 20.6325 0.331118 2.002679 -0.861272
2010-09-02 05:31:13 51°24.24 3°0.562 20.6501 0.331118 2.002679 -0.896096
2010-09-02 05:31:18 51°24.256 3°0.577 20.6362 0.331118 2.002679 -0.896096
2010-09-02 05:31:23 51°24.272 3°0.592 20.6497 0.331118 2.002748 -0.826448
2010-09-02 05:31:29 51°24.291 3°0.61 20.6487 0.331013 2.002045 -0.861272
2010-09-02 05:31:33 51°24.304 3°0.622 20.6449 0.331118 2.002816 -0.861272
2010-09-02 05:31:38 51°24.32 3°0.637 20.6492 0.331013 2.002114 -0.861272
2010-09-02 05:31:43 51°24.336 3°0.651 20.6598 0.331118 2.002816 -0.861272
2010-09-02 05:31:48 51°24.351 3°0.666 20.635 0.331118 2.002816 -0.861272
2010-09-02 05:31:53 51°24.368 3°0.681 20.6522 0.331118 2.002885 -0.826448
2010-09-02 05:31:58 51°24.383 3°0.696 20.6544 0.331013 2.002217 -0.826448
2010-09-02 05:32:03 51°24.399 3°0.711 20.6489 0.331118 2.002954 -0.861272
2010-09-02 05:32:09 51°24.418 3°0.729 20.6509 0.331013 2.002251 -0.826448
2010-09-02 05:32:13 51°24.431 3°0.741 20.6588 0.331118 2.002954 -0.861272
2010-09-02 05:32:18 51°24.447 3°0.756 20.6459 0.331013 2.002388 -0.861272
2010-09-02 05:32:23 51°24.463 3°0.771 20.6544 0.331013 2.002388 -0.861272
2010-09-02 05:32:28 51°24.479 3°0.786 20.6591 0.331013 2.002388 -0.826448
2010-09-02 05:32:33 51°24.495 3°0.801 20.6581 0.331118 2.003125 -0.861272
2010-09-02 05:32:38 51°24.51 3°0.817 20.6679 0.331013 2.002423 -0.861272
2010-09-02 05:32:43 51°24.526 3°0.831 20.6538 0.330909 2.001788 -0.861272
2010-09-02 05:32:49 51°24.545 3°0.849 20.6589 0.331118 2.003194 -0.861272
2010-09-02 05:32:53 51°24.558 3°0.861 20.6601 0.331118 2.003194 -0.861272
2010-09-02 05:32:58 51°24.573 3°0.876 20.6606 0.331013 2.00256 -0.826448
2010-09-02 05:33:03 51°24.589 3°0.891 20.6625 0.331013 2.002594 -0.826448
2010-09-02 05:33:08 51°24.605 3°0.906 20.6611 0.331118 2.003332 -0.861272
2010-09-02 05:33:13 51°24.621 3°0.922 20.6587 0.331013 2.002697 -0.826448
2010-09-02 05:33:18 51°24.637 3°0.937 20.6719 0.331013 2.002697 -0.826448
2010-09-02 05:33:23 51°24.652 3°0.951 20.6613 0.331013 2.002732 -0.826448
2010-09-02 05:33:29 51°24.671 3°0.97 20.6662 0.331118 2.003469 -0.861272
2010-09-02 05:33:33 51°24.684 3°0.982 20.6699 0.331013 2.002835 -0.861272
2010-09-02 05:33:38 51°24.7 3°0.997 20.6664 0.331013 2.002869 -0.861272
2010-09-02 05:33:43 51°24.715 3°1.012 20.6784 0.331013 2.002938 -0.861272
2010-09-02 05:33:49 51°24.734 3°1.03 20.6735 0.330909 2.002269 -0.826448
2010-09-02 05:33:53 51°24.746 3°1.041 20.6787 0.330909 2.002269 -0.826448
2010-09-02 05:33:58 51°24.762 3°1.055 20.6751 0.331013 2.002972 -0.861272
2010-09-02 05:34:03 51°24.777 3°1.07 20.6768 0.331013 2.003075 -0.861272
2010-09-02 05:34:09 51°24.797 3°1.088 20.6772 0.331013 2.003075 -0.861272
2010-09-02 05:34:13 51°24.809 3°1.101 20.6686 0.331013 2.00311 -0.896096
2010-09-02 05:34:18 51°24.825 3°1.116 20.6789 0.331013 2.003144 -0.861272
2010-09-02 05:34:23 51°24.84 3°1.131 20.6797 0.331013 2.003144 -0.861272
2010-09-02 05:34:28 51°24.856 3°1.146 20.6759 0.331013 2.003144 -0.826448
2010-09-02 05:34:33 51°24.871 3°1.161 20.675 0.331013 2.003247 -0.861272
2010-09-02 05:34:38 51°24.886 3°1.176 20.6813 0.331013 2.003247 -0.861272
2010-09-02 05:34:43 51°24.902 3°1.193 20.6733 0.331013 2.003247 -0.861272
2010-09-02 05:34:49 51°24.92 3°1.212 20.6873 0.331013 2.003247 -0.861272
2010-09-02 05:34:53 51°24.932 3°1.225 20.6779 0.331013 2.003282 -0.861272